Wetterdaten: aktuell Samstag, 03.06.2023 16:34
Datum Zeit Temp. I. Temp. 2m Temp. 5cm Temp. Lager Feuchte I. Feuchte 2m Luftdruck Regen Wind Richtung Richtung Taupunkt Windchill Windben
03.06.2023 16:34 24,1 C 16,9 C 26,4 C 20,6 C 41 % 36 % 1017,1 hPa 0,0 l/m 9,7 km/h (2 Bft) O 90 1,7 C 15,3 C 23,7 km/h (4 Bft)
03.06.2023 16:32 24,2 C 17,0 C 27,7 C 20,6 C 41 % 36 % 1017,1 hPa 0,0 l/m 10,3 km/h (2 Bft) S-SW 202 1,8 C 15,2 C 19,6 km/h (3 Bft)
03.06.2023 16:30 24,1 C 16,8 C 27,2 C 20,7 C 41 % 37 % 1017,6 hPa 0,0 l/m 10,5 km/h (2 Bft) S-SO 157 2,0 C 14,9 C 17,6 km/h (3 Bft)
03.06.2023 16:28 24,1 C 17,0 C 28,3 C 20,6 C 41 % 37 % 1017,6 hPa 0,0 l/m 10,3 km/h (2 Bft) O-SO 112 2,2 C 15,2 C 11,1 km/h (2 Bft)
03.06.2023 16:26 24,1 C 16,7 C 27,1 C 20,7 C 41 % 38 % 1017,6 hPa 0,0 l/m 10,0 km/h (2 Bft) SO 135 2,3 C 15,0 C 8,0 km/h (2 Bft)
03.06.2023 16:24 24,1 C 16,8 C 26,7 C 20,6 C 41 % 37 % 1017,6 hPa 0,0 l/m 10,1 km/h (2 Bft) N 360 2,0 C 15,1 C 19,3 km/h (3 Bft)
03.06.2023 16:22 24,2 C 16,5 C 27,5 C 20,6 C 41 % 38 % 1017,6 hPa 0,0 l/m 9,3 km/h (2 Bft) O-NO 67 2,1 C 15,1 C 28,5 km/h (4 Bft)
03.06.2023 16:20 24,2 C 16,6 C 27,2 C 20,6 C 41 % 36 % 1017,6 hPa 0,0 l/m 10,1 km/h (2 Bft) SO 135 1,5 C 14,8 C 11,1 km/h (2 Bft)
03.06.2023 16:18 24,2 C 16,7 C 28,5 C 20,6 C 41 % 37 % 1017,6 hPa 0,0 l/m 10,0 km/h (2 Bft) S-SO 157 1,9 C 15,0 C 19,3 km/h (3 Bft)
03.06.2023 16:16 24,2 C 16,4 C 29,1 C 20,6 C 41 % 36 % 1017,6 hPa 0,0 l/m 9,5 km/h (2 Bft) O 90 1,3 C 14,9 C 14,7 km/h (3 Bft)
03.06.2023 16:14 24,1 C 17,1 C 29,1 C 20,7 C 41 % 38 % 1017,6 hPa 0,0 l/m 9,3 km/h (2 Bft) O-NO 67 2,7 C 15,7 C 14,0 km/h (3 Bft)
03.06.2023 16:12 24,2 C 17,0 C 28,3 C 20,6 C 41 % 37 % 1017,6 hPa 0,0 l/m 9,7 km/h (2 Bft) SO 135 2,2 C 15,4 C 15,7 km/h (3 Bft)
03.06.2023 16:10 24,2 C 17,2 C 29,1 C 20,6 C 41 % 37 % 1017,5 hPa 0,0 l/m 9,0 km/h (2 Bft) O-NO 67 2,4 C 16,0 C 26,6 km/h (4 Bft)
03.06.2023 16:08 24,2 C 17,1 C 28,9 C 20,6 C 41 % 38 % 1017,5 hPa 0,0 l/m 8,4 km/h (2 Bft) O 90 2,7 C 16,1 C 10,4 km/h (2 Bft)
03.06.2023 16:06 24,2 C 16,9 C 29,3 C 20,6 C 41 % 39 % 1017,5 hPa 0,0 l/m 8,4 km/h (2 Bft) O 90 2,9 C 15,9 C 9,2 km/h (2 Bft)
03.06.2023 16:04 24,2 C 16,5 C 28,7 C 20,6 C 41 % 37 % 1017,5 hPa 0,0 l/m 8,7 km/h (2 Bft) O 90 1,8 C 15,3 C 10,9 km/h (2 Bft)
03.06.2023 16:02 24,2 C 16,3 C 28,4 C 20,6 C 41 % 36 % 1017,5 hPa 0,0 l/m 9,5 km/h (2 Bft) NO 45 1,2 C 14,8 C 17,1 km/h (3 Bft)
03.06.2023 16:00 24,2 C 17,1 C 27,5 C 20,6 C 41 % 38 % 1017,5 hPa 0,0 l/m 9,8 km/h (2 Bft) O 90 2,7 C 15,5 C 13,3 km/h (3 Bft)
03.06.2023 15:58 24,2 C 16,6 C 27,5 C 20,6 C 41 % 38 % 1017,5 hPa 0,0 l/m 10,0 km/h (2 Bft) SO 135 2,2 C 14,9 C 16,9 km/h (3 Bft)
03.06.2023 15:56 24,2 C 16,6 C 27,3 C 20,6 C 41 % 36 % 1017,5 hPa 0,0 l/m 10,8 km/h (2 Bft) O 90 1,5 C 14,6 C 16,4 km/h (3 Bft)
03.06.2023 15:54 24,2 C 16,8 C 27,4 C 20,5 C 41 % 37 % 1017,5 hPa 0,0 l/m 11,1 km/h (2 Bft) O 90 2,0 C 14,7 C 17,9 km/h (3 Bft)
03.06.2023 15:52 24,2 C 17,0 C 28,0 C 20,6 C 41 % 37 % 1017,5 hPa 0,0 l/m 10,5 km/h (2 Bft) O-SO 112 2,2 C 15,1 C 28,7 km/h (4 Bft)
03.06.2023 15:50 24,2 C 17,2 C 28,3 C 20,5 C 41 % 38 % 1017,5 hPa 0,0 l/m 10,6 km/h (2 Bft) SO 135 2,8 C 15,3 C 25,1 km/h (4 Bft)
03.06.2023 15:48 24,2 C 16,8 C 28,1 C 20,5 C 41 % 38 % 1017,5 hPa 0,0 l/m 10,5 km/h (2 Bft) N-NO 22 2,4 C 14,9 C 25,3 km/h (4 Bft)
03.06.2023 15:46 24,2 C 16,9 C 28,0 C 20,5 C 41 % 38 % 1017,5 hPa 0,0 l/m 10,6 km/h (2 Bft) N-NO 22 2,5 C 15,0 C 23,7 km/h (4 Bft)
03.06.2023 15:44 24,2 C 16,6 C 28,9 C 20,6 C 41 % 37 % 1017,5 hPa 0,0 l/m 10,9 km/h (2 Bft) NO 45 1,9 C 14,5 C 19,3 km/h (3 Bft)
03.06.2023 15:42 24,2 C 16,7 C 28,5 C 20,5 C 41 % 38 % 1017,5 hPa 0,0 l/m 11,6 km/h (2 Bft) NW 315 2,3 C 14,4 C 14,5 km/h (3 Bft)
03.06.2023 15:40 24,2 C 16,7 C 28,5 C 20,5 C 41 % 38 % 1017,5 hPa 0,0 l/m 12,4 km/h (3 Bft) O-NO 67 2,3 C 14,1 C 17,4 km/h (3 Bft)
03.06.2023 15:38 24,2 C 16,3 C 29,0 C 20,6 C 41 % 38 % 1017,5 hPa 0,0 l/m 13,0 km/h (3 Bft) NO 45 2,0 C 13,4 C 18,6 km/h (3 Bft)
03.06.2023 15:36 24,1 C 16,3 C 28,2 C 20,6 C 41 % 38 % 1017,5 hPa 0,0 l/m 12,4 km/h (3 Bft) O-NO 67 2,0 C 13,6 C 17,9 km/h (3 Bft)
03.06.2023 15:34 24,2 C 16,3 C 27,7 C 20,6 C 41 % 37 % 1017,5 hPa 0,0 l/m 11,4 km/h (2 Bft) N-NO 22 1,6 C 14,0 C 24,4 km/h (4 Bft)
03.06.2023 15:32 24,1 C 16,5 C 27,7 C 20,6 C 41 % 37 % 1017,5 hPa 0,0 l/m 10,1 km/h (2 Bft) NO 45 1,8 C 14,7 C 19,8 km/h (3 Bft)
03.06.2023 15:30 24,2 C 16,7 C 28,4 C 20,6 C 41 % 39 % 1017,8 hPa 0,0 l/m 9,0 km/h (2 Bft) O 90 2,7 C 15,4 C 23,2 km/h (4 Bft)
03.06.2023 15:28 24,1 C 16,6 C 28,7 C 20,6 C 41 % 36 % 1017,8 hPa 0,0 l/m 7,2 km/h (2 Bft) O 90 1,5 C 16,2 C 15,7 km/h (3 Bft)
03.06.2023 15:26 24,1 C 16,7 C 29,0 C 20,6 C 41 % 38 % 1017,8 hPa 0,0 l/m 6,6 km/h (2 Bft) S-SW 202 2,3 C 16,6 C 6,3 km/h (2 Bft)
03.06.2023 15:24 24,2 C 16,5 C 29,8 C 20,6 C 41 % 39 % 1017,8 hPa 0,0 l/m 6,1 km/h (2 Bft) O-NO 67 2,5 C 16,5 C 15,4 km/h (3 Bft)
03.06.2023 15:22 24,1 C 16,9 C 29,5 C 20,6 C 41 % 38 % 1017,8 hPa 0,0 l/m 6,4 km/h (2 Bft) NO 45 2,5 C 16,9 C 17,9 km/h (3 Bft)
03.06.2023 15:20 24,2 C 16,9 C 30,3 C 20,6 C 41 % 38 % 1017,8 hPa 0,0 l/m 7,6 km/h (2 Bft) SO 135 2,5 C 16,3 C 21,5 km/h (4 Bft)
03.06.2023 15:18 24,1 C 16,6 C 29,7 C 20,6 C 41 % 39 % 1017,8 hPa 0,0 l/m 7,6 km/h (2 Bft) SO 135 2,6 C 16,0 C 9,7 km/h (2 Bft)
03.06.2023 15:16 24,1 C 16,3 C 29,2 C 20,6 C 41 % 38 % 1017,8 hPa 0,0 l/m 8,9 km/h (2 Bft) S-SO 157 2,0 C 15,0 C 10,1 km/h (2 Bft)
03.06.2023 15:14 24,1 C 16,7 C 29,1 C 20,6 C 41 % 37 % 1017,8 hPa 0,0 l/m 10,0 km/h (2 Bft) SO 135 1,9 C 15,0 C 8,7 km/h (2 Bft)
03.06.2023 15:12 24,1 C 16,7 C 28,6 C 20,6 C 41 % 37 % 1017,8 hPa 0,0 l/m 10,9 km/h (2 Bft) NO 45 1,9 C 14,6 C 17,6 km/h (3 Bft)
03.06.2023 15:10 24,1 C 16,7 C 28,9 C 20,6 C 41 % 38 % 1017,9 hPa 0,0 l/m 11,1 km/h (2 Bft) NO 45 2,3 C 14,6 C 27,5 km/h (4 Bft)
03.06.2023 15:08 24,1 C 16,6 C 27,7 C 20,5 C 41 % 38 % 1017,9 hPa 0,0 l/m 10,5 km/h (2 Bft) O-NO 67 2,2 C 14,7 C 11,3 km/h (2 Bft)
03.06.2023 15:06 24,1 C 16,8 C 27,9 C 20,5 C 41 % 38 % 1017,9 hPa 0,0 l/m 10,6 km/h (2 Bft) O-SO 112 2,4 C 14,9 C 17,9 km/h (3 Bft)
03.06.2023 15:04 24,1 C 16,7 C 29,0 C 20,5 C 41 % 39 % 1017,9 hPa 0,0 l/m 9,7 km/h (2 Bft) SO 135 2,7 C 15,1 C 24,9 km/h (4 Bft)
03.06.2023 15:02 24,1 C 16,4 C 28,6 C 20,5 C 41 % 39 % 1017,9 hPa 0,0 l/m 8,9 km/h (2 Bft) SO 135 2,4 C 15,1 C 22,4 km/h (4 Bft)
03.06.2023 15:00 24,1 C 16,9 C 29,7 C 20,5 C 41 % 39 % 1017,9 hPa 0,0 l/m 8,4 km/h (2 Bft) SO 135 2,9 C 15,9 C 17,6 km/h (3 Bft)
03.06.2023 14:58 24,1 C 16,8 C 29,2 C 20,5 C 41 % 40 % 1017,9 hPa 0,0 l/m 8,5 km/h (2 Bft) O-NO 67 3,1 C 15,8 C 16,9 km/h (3 Bft)
03.06.2023 14:56 24,1 C 16,3 C 29,1 C 20,5 C 41 % 39 % 1017,9 hPa 0,0 l/m 9,2 km/h (2 Bft) NO 45 2,3 C 14,9 C 26,1 km/h (4 Bft)
03.06.2023 14:54 24,1 C 16,1 C 29,5 C 20,5 C 41 % 37 % 1017,9 hPa 0,0 l/m 9,8 km/h (2 Bft) NO 45 1,4 C 14,4 C 15,9 km/h (3 Bft)
03.06.2023 14:52 24,1 C 16,1 C 29,2 C 20,6 C 41 % 38 % 1017,9 hPa 0,0 l/m 9,2 km/h (2 Bft) O-NO 67 1,8 C 14,7 C 15,2 km/h (3 Bft)
03.06.2023 14:50 24,1 C 15,9 C 29,0 C 20,5 C 41 % 37 % 1017,9 hPa 0,0 l/m 9,3 km/h (2 Bft) NO 45 1,2 C 14,4 C 19,1 km/h (3 Bft)
03.06.2023 14:48 24,1 C 16,3 C 29,1 C 20,5 C 41 % 38 % 1017,9 hPa 0,0 l/m 9,2 km/h (2 Bft) NO 45 2,0 C 14,9 C 13,5 km/h (3 Bft)
03.06.2023 14:46 24,1 C 16,1 C 29,4 C 20,6 C 41 % 39 % 1017,9 hPa 0,0 l/m 9,3 km/h (2 Bft) O-NO 67 2,1 C 14,6 C 27,8 km/h (4 Bft)
03.06.2023 14:44 24,1 C 16,1 C 29,1 C 20,5 C 41 % 39 % 1017,9 hPa 0,0 l/m 9,7 km/h (2 Bft) O 90 2,1 C 14,5 C 20,5 km/h (4 Bft)
03.06.2023 14:42 24,1 C 16,1 C 28,1 C 20,5 C 41 % 39 % 1017,9 hPa 0,0 l/m 10,5 km/h (2 Bft) O 90 2,1 C 14,1 C 6,3 km/h (2 Bft)
03.06.2023 14:40 24,1 C 16,2 C 28,3 C 20,5 C 41 % 38 % 1017,9 hPa 0,0 l/m 10,9 km/h (2 Bft) SO 135 1,9 C 14,1 C 18,3 km/h (3 Bft)
03.06.2023 14:38 24,1 C 16,0 C 27,1 C 20,5 C 41 % 39 % 1017,9 hPa 0,0 l/m 11,9 km/h (2 Bft) SO 135 2,1 C 13,5 C 13,5 km/h (3 Bft)
03.06.2023 14:36 24,1 C 16,0 C 26,9 C 20,5 C 41 % 38 % 1017,9 hPa 0,0 l/m 11,9 km/h (2 Bft) O 90 1,7 C 13,5 C 22,9 km/h (4 Bft)
03.06.2023 14:34 24,1 C 16,0 C 26,7 C 20,5 C 41 % 38 % 1017,9 hPa 0,0 l/m 11,7 km/h (2 Bft) O-SO 112 1,7 C 13,5 C 20,5 km/h (4 Bft)
03.06.2023 14:32 24,1 C 16,4 C 28,6 C 20,5 C 41 % 38 % 1017,9 hPa 0,0 l/m 10,9 km/h (2 Bft) O-SO 112 2,1 C 14,3 C 17,9 km/h (3 Bft)
03.06.2023 14:30 24,1 C 16,4 C 28,4 C 20,5 C 41 % 39 % 1018,2 hPa 0,0 l/m 10,8 km/h (2 Bft) O-SO 112 2,4 C 14,3 C 14,7 km/h (3 Bft)
03.06.2023 14:28 24,1 C 16,3 C 29,0 C 20,5 C 41 % 41 % 1018,2 hPa 0,0 l/m 11,1 km/h (2 Bft) SO 135 3,0 C 14,1 C 23,4 km/h (4 Bft)
03.06.2023 14:26 24,1 C 15,9 C 29,2 C 20,5 C 41 % 40 % 1018,2 hPa 0,0 l/m 10,9 km/h (2 Bft) O-NO 67 2,3 C 13,7 C 15,4 km/h (3 Bft)
03.06.2023 14:24 24,1 C 16,4 C 29,9 C 20,5 C 41 % 39 % 1018,2 hPa 0,0 l/m 10,1 km/h (2 Bft) NO 45 2,4 C 14,6 C 24,6 km/h (4 Bft)
03.06.2023 14:22 24,1 C 16,2 C 30,0 C 20,5 C 41 % 41 % 1018,2 hPa 0,0 l/m 9,2 km/h (2 Bft) O-NO 67 2,9 C 14,8 C 16,7 km/h (3 Bft)
03.06.2023 14:20 24,1 C 16,2 C 29,1 C 20,5 C 41 % 39 % 1018,2 hPa 0,0 l/m 9,3 km/h (2 Bft) N-NO 22 2,2 C 14,7 C 18,8 km/h (3 Bft)
03.06.2023 14:18 24,1 C 16,1 C 28,5 C 20,5 C 41 % 39 % 1018,2 hPa 0,0 l/m 9,3 km/h (2 Bft) O-NO 67 2,1 C 14,6 C 22,2 km/h (4 Bft)
03.06.2023 14:16 24,1 C 16,1 C 30,0 C 20,5 C 41 % 39 % 1018,2 hPa 0,0 l/m 8,9 km/h (2 Bft) O 90 2,1 C 14,8 C 21,0 km/h (4 Bft)
03.06.2023 14:14 24,1 C 16,1 C 30,2 C 20,5 C 41 % 42 % 1018,2 hPa 0,0 l/m 8,9 km/h (2 Bft) NO 45 3,2 C 14,8 C 15,2 km/h (3 Bft)
03.06.2023 14:12 24,1 C 16,0 C 29,5 C 20,5 C 41 % 39 % 1018,2 hPa 0,0 l/m 9,0 km/h (2 Bft) O-NO 67 2,1 C 14,7 C 13,8 km/h (3 Bft)
03.06.2023 14:10 24,1 C 16,0 C 29,1 C 20,5 C 41 % 38 % 1018,2 hPa 0,0 l/m 8,9 km/h (2 Bft) NO 45 1,7 C 14,7 C 21,0 km/h (4 Bft)
03.06.2023 14:08 24,1 C 16,1 C 29,2 C 20,5 C 40 % 39 % 1018,2 hPa 0,0 l/m 9,2 km/h (2 Bft) O 90 2,1 C 14,7 C 18,8 km/h (3 Bft)
03.06.2023 14:06 24,1 C 16,4 C 29,9 C 20,5 C 40 % 41 % 1018,2 hPa 0,0 l/m 8,9 km/h (2 Bft) NO 45 3,1 C 15,1 C 21,2 km/h (4 Bft)
03.06.2023 14:04 24,1 C 15,9 C 28,9 C 20,5 C 40 % 37 % 1018,2 hPa 0,0 l/m 9,3 km/h (2 Bft) O-NO 67 1,2 C 14,4 C 10,6 km/h (2 Bft)
03.06.2023 14:02 24,1 C 16,0 C 28,4 C 20,5 C 41 % 40 % 1018,2 hPa 0,0 l/m 10,0 km/h (2 Bft) SO 135 2,4 C 14,2 C 17,1 km/h (3 Bft)
03.06.2023 14:00 24,1 C 16,0 C 28,6 C 20,5 C 40 % 39 % 1018,2 hPa 0,0 l/m 10,8 km/h (2 Bft) O-NO 67 2,1 C 13,9 C 22,7 km/h (4 Bft)
03.06.2023 13:58 24,1 C 16,3 C 28,9 C 20,5 C 40 % 40 % 1018,2 hPa 0,0 l/m 11,1 km/h (2 Bft) SO 135 2,7 C 14,1 C 21,0 km/h (4 Bft)
03.06.2023 13:56 24,1 C 16,4 C 28,8 C 20,5 C 40 % 42 % 1018,2 hPa 0,0 l/m 11,1 km/h (2 Bft) N 360 3,5 C 14,2 C 18,8 km/h (3 Bft)
03.06.2023 13:54 24,1 C 16,3 C 28,8 C 20,5 C 40 % 40 % 1018,2 hPa 0,0 l/m 11,6 km/h (2 Bft) O-NO 67 2,7 C 13,9 C 28,0 km/h (4 Bft)
03.06.2023 13:52 24,1 C 16,1 C 28,5 C 20,4 C 40 % 38 % 1018,2 hPa 0,0 l/m 11,7 km/h (2 Bft) O 90 1,8 C 13,7 C 15,0 km/h (3 Bft)
03.06.2023 13:50 24,1 C 16,2 C 28,0 C 20,5 C 40 % 39 % 1018,5 hPa 0,0 l/m 10,9 km/h (2 Bft) O-NO 67 2,2 C 14,1 C 16,7 km/h (3 Bft)
03.06.2023 13:48 24,1 C 16,2 C 28,8 C 20,4 C 40 % 40 % 1018,5 hPa 0,0 l/m 10,3 km/h (2 Bft) SO 135 2,6 C 14,3 C 24,4 km/h (4 Bft)
03.06.2023 13:46 24,1 C 16,0 C 28,3 C 20,4 C 40 % 40 % 1018,5 hPa 0,0 l/m 9,3 km/h (2 Bft) S-SO 157 2,4 C 14,5 C 15,9 km/h (3 Bft)
03.06.2023 13:44 24,1 C 15,6 C 27,6 C 20,4 C 40 % 38 % 1018,5 hPa 0,0 l/m 8,5 km/h (2 Bft) SO 135 1,3 C 14,5 C 19,6 km/h (3 Bft)
03.06.2023 13:42 24,1 C 15,4 C 27,9 C 20,4 C 40 % 36 % 1018,5 hPa 0,0 l/m 7,7 km/h (2 Bft) W-SW 247 0,4 C 14,7 C 25,1 km/h (4 Bft)
03.06.2023 13:40 24,1 C 15,4 C 28,5 C 20,4 C 40 % 36 % 1018,5 hPa 0,0 l/m 7,4 km/h (2 Bft) SO 135 0,4 C 14,8 C 11,8 km/h (2 Bft)
03.06.2023 13:38 24,1 C 15,8 C 29,2 C 20,4 C 40 % 38 % 1018,5 hPa 0,0 l/m 7,7 km/h (2 Bft) SO 135 1,5 C 15,1 C 14,5 km/h (3 Bft)
03.06.2023 13:36 24,1 C 15,2 C 29,2 C 20,4 C 40 % 38 % 1018,5 hPa 0,0 l/m 8,0 km/h (2 Bft) S-SW 202 1,0 C 14,3 C 10,4 km/h (2 Bft)
03.06.2023 13:34 24,1 C 15,4 C 28,0 C 20,4 C 40 % 38 % 1018,5 hPa 0,0 l/m 8,9 km/h (2 Bft) O-SO 112 1,2 C 14,1 C 9,2 km/h (2 Bft)
03.06.2023 13:32 24,1 C 15,0 C 28,9 C 20,4 C 40 % 38 % 1018,5 hPa 0,0 l/m 9,7 km/h (2 Bft) O-SO 112 0,8 C 13,3 C 13,3 km/h (3 Bft)
03.06.2023 13:30 24,1 C 15,1 C 28,5 C 20,4 C 40 % 39 % 1018,4 hPa 0,0 l/m 10,9 km/h (2 Bft) NO 45 1,3 C 12,8 C 16,4 km/h (3 Bft)
03.06.2023 13:28 24,1 C 15,1 C 28,1 C 20,4 C 40 % 38 % 1018,4 hPa 0,0 l/m 12,1 km/h (2 Bft) O 90 0,9 C 12,3 C 16,7 km/h (3 Bft)
03.06.2023 13:26 24,1 C 15,1 C 27,8 C 20,4 C 40 % 38 % 1018,4 hPa 0,0 l/m 13,5 km/h (3 Bft) NO 45 0,9 C 11,8 C 24,1 km/h (4 Bft)
03.06.2023 13:24 24,1 C 14,8 C 27,8 C 20,4 C 40 % 38 % 1018,4 hPa 0,0 l/m 12,7 km/h (3 Bft) NO 45 0,6 C 11,8 C 36,5 km/h (5 Bft)
03.06.2023 13:22 24,1 C 15,1 C 27,5 C 20,5 C 40 % 36 % 1018,4 hPa 0,0 l/m 13,2 km/h (3 Bft) O-NO 67 0,1 C 11,9 C 22,0 km/h (4 Bft)
03.06.2023 13:20 24,1 C 15,6 C 27,7 C 20,4 C 40 % 42 % 1018,4 hPa 0,0 l/m 12,2 km/h (2 Bft) W-NW 292 2,7 C 12,9 C 36,5 km/h (5 Bft)
03.06.2023 13:18 24,1 C 15,4 C 27,6 C 20,5 C 40 % 39 % 1018,4 hPa 0,0 l/m 10,5 km/h (2 Bft) N-NO 22 1,5 C 13,3 C 27,3 km/h (4 Bft)
03.06.2023 13:16 24,1 C 15,7 C 27,8 C 20,4 C 40 % 38 % 1018,4 hPa 0,0 l/m 9,0 km/h (2 Bft) O-NO 67 1,4 C 14,3 C 24,1 km/h (4 Bft)
03.06.2023 13:14 24,1 C 15,6 C 27,8 C 20,4 C 40 % 39 % 1018,4 hPa 0,0 l/m 9,8 km/h (2 Bft) SO 135 1,7 C 13,9 C 16,4 km/h (3 Bft)
03.06.2023 13:12 24,1 C 15,3 C 28,0 C 20,4 C 40 % 37 % 1018,4 hPa 0,0 l/m 9,0 km/h (2 Bft) SO 135 0,7 C 13,9 C 28,5 km/h (4 Bft)
03.06.2023 13:10 24,1 C 15,5 C 30,0 C 20,4 C 40 % 38 % 1018,5 hPa 0,0 l/m 8,7 km/h (2 Bft) O-NO 67 1,3 C 14,3 C 13,3 km/h (3 Bft)
03.06.2023 13:08 24,1 C 15,3 C 28,9 C 20,4 C 40 % 45 % 1018,5 hPa 0,0 l/m 8,7 km/h (2 Bft) O 90 3,4 C 14,1 C 7,0 km/h (2 Bft)
03.06.2023 13:06 24,1 C 14,9 C 27,3 C 20,4 C 40 % 38 % 1018,5 hPa 0,0 l/m 9,3 km/h (2 Bft) NO 45 0,7 C 13,3 C 24,4 km/h (4 Bft)
03.06.2023 13:04 24,1 C 15,2 C 29,2 C 20,3 C 40 % 38 % 1018,5 hPa 0,0 l/m 9,0 km/h (2 Bft) O-NO 67 1,0 C 13,8 C 23,2 km/h (4 Bft)
03.06.2023 13:02 24,1 C 15,3 C 28,9 C 20,3 C 40 % 37 % 1018,5 hPa 0,0 l/m 8,2 km/h (2 Bft) O 90 0,7 C 14,3 C 10,4 km/h (2 Bft)
03.06.2023 13:00 24,1 C 15,5 C 29,2 C 20,3 C 40 % 41 % 1018,5 hPa 0,0 l/m 8,4 km/h (2 Bft) O-NO 67 2,3 C 14,4 C 18,1 km/h (3 Bft)
03.06.2023 12:58 24,1 C 15,4 C 27,4 C 20,3 C 40 % 37 % 1018,5 hPa 0,0 l/m 9,0 km/h (2 Bft) O 90 0,8 C 14,0 C 16,7 km/h (3 Bft)
03.06.2023 12:56 24,1 C 15,4 C 28,0 C 20,3 C 40 % 37 % 1018,5 hPa 0,0 l/m 9,7 km/h (2 Bft) SO 135 0,8 C 13,7 C 16,4 km/h (3 Bft)
03.06.2023 12:54 24,1 C 15,3 C 27,9 C 20,3 C 39 % 42 % 1018,5 hPa 0,0 l/m 9,2 km/h (2 Bft) NO 45 2,5 C 13,8 C 12,8 km/h (3 Bft)
03.06.2023 12:52 24,1 C 14,7 C 27,0 C 20,3 C 40 % 40 % 1018,5 hPa 0,0 l/m 9,5 km/h (2 Bft) N-NW 337 1,2 C 13,0 C 8,9 km/h (2 Bft)
03.06.2023 12:50 24,1 C 14,9 C 26,3 C 20,3 C 40 % 38 % 1018,6 hPa 0,0 l/m 10,9 km/h (2 Bft) SO 135 0,7 C 12,6 C 16,7 km/h (3 Bft)
03.06.2023 12:48 24,1 C 14,9 C 27,3 C 20,3 C 40 % 40 % 1018,6 hPa 0,0 l/m 10,3 km/h (2 Bft) NO 45 1,4 C 12,9 C 18,1 km/h (3 Bft)
03.06.2023 12:46 24,1 C 15,3 C 28,3 C 20,3 C 40 % 40 % 1018,6 hPa 0,0 l/m 9,8 km/h (2 Bft) NO 45 1,8 C 13,5 C 12,8 km/h (3 Bft)
03.06.2023 12:44 24,1 C 15,2 C 28,5 C 20,3 C 40 % 40 % 1018,6 hPa 0,0 l/m 9,8 km/h (2 Bft) O 90 1,7 C 13,4 C 23,7 km/h (4 Bft)
03.06.2023 12:42 24,1 C 15,0 C 28,2 C 20,3 C 40 % 40 % 1018,6 hPa 0,0 l/m 10,0 km/h (2 Bft) O-NO 67 1,5 C 13,1 C 15,9 km/h (3 Bft)
03.06.2023 12:40 24,1 C 15,2 C 28,5 C 20,3 C 39 % 41 % 1018,6 hPa 0,0 l/m 10,3 km/h (2 Bft) O 90 2,0 C 13,2 C 30,7 km/h (5 Bft)
03.06.2023 12:38 24,1 C 14,9 C 28,6 C 20,3 C 39 % 42 % 1018,6 hPa 0,0 l/m 10,3 km/h (2 Bft) SO 135 2,1 C 12,9 C 21,5 km/h (4 Bft)
03.06.2023 12:36 24,1 C 14,7 C 28,0 C 20,3 C 39 % 39 % 1018,6 hPa 0,0 l/m 10,9 km/h (2 Bft) SO 135 0,9 C 12,4 C 6,5 km/h (2 Bft)
03.06.2023 12:34 24,1 C 14,7 C 26,8 C 20,3 C 40 % 41 % 1018,6 hPa 0,0 l/m 11,9 km/h (2 Bft) O-NO 67 1,6 C 12,0 C 26,1 km/h (4 Bft)
03.06.2023 12:32 24,1 C 14,8 C 26,9 C 20,3 C 40 % 41 % 1018,6 hPa 0,0 l/m 11,6 km/h (2 Bft) O-NO 67 1,7 C 12,2 C 21,7 km/h (4 Bft)
03.06.2023 12:30 24,1 C 14,7 C 26,7 C 20,3 C 40 % 39 % 1018,8 hPa 0,0 l/m 11,4 km/h (2 Bft) O-SO 112 0,9 C 12,2 C 20,8 km/h (4 Bft)
03.06.2023 12:28 24,1 C 14,5 C 27,1 C 20,3 C 40 % 41 % 1018,8 hPa 0,0 l/m 10,0 km/h (2 Bft) O 90 1,4 C 12,6 C 15,7 km/h (3 Bft)
03.06.2023 12:26 24,1 C 14,5 C 26,2 C 20,2 C 40 % 39 % 1018,8 hPa 0,0 l/m 9,5 km/h (2 Bft) O-SO 112 0,7 C 12,8 C 15,9 km/h (3 Bft)
03.06.2023 12:24 24,1 C 14,6 C 26,6 C 20,2 C 40 % 38 % 1018,8 hPa 0,0 l/m 9,7 km/h (2 Bft) O-SO 112 0,4 C 12,8 C 21,5 km/h (4 Bft)
03.06.2023 12:22 24,0 C 14,9 C 28,2 C 20,2 C 40 % 43 % 1018,8 hPa 0,0 l/m 9,3 km/h (2 Bft) SO 135 2,4 C 13,3 C 19,1 km/h (3 Bft)
03.06.2023 12:20 24,0 C 14,6 C 27,8 C 20,2 C 40 % 45 % 1018,8 hPa 0,0 l/m 10,5 km/h (2 Bft) O-SO 112 2,8 C 12,4 C 15,2 km/h (3 Bft)
03.06.2023 12:18 24,0 C 14,2 C 27,3 C 20,2 C 40 % 41 % 1018,8 hPa 0,0 l/m 11,6 km/h (2 Bft) O-NO 67 1,1 C 11,5 C 10,4 km/h (2 Bft)
03.06.2023 12:16 24,1 C 14,3 C 27,6 C 20,3 C 40 % 44 % 1018,8 hPa 0,0 l/m 12,9 km/h (3 Bft) O 90 2,2 C 11,1 C 21,2 km/h (4 Bft)
03.06.2023 12:14 24,0 C 14,3 C 27,5 C 20,3 C 40 % 44 % 1018,8 hPa 0,0 l/m 13,5 km/h (3 Bft) NO 45 2,2 C 10,9 C 17,4 km/h (3 Bft)
03.06.2023 12:12 24,0 C 14,6 C 26,7 C 20,3 C 40 % 43 % 1018,8 hPa 0,0 l/m 14,3 km/h (3 Bft) O-NO 67 2,2 C 10,9 C 15,2 km/h (3 Bft)
03.06.2023 12:10 24,0 C 14,6 C 27,0 C 20,3 C 40 % 43 % 1018,6 hPa 0,0 l/m 14,5 km/h (3 Bft) NO 45 2,2 C 10,9 C 32,3 km/h (5 Bft)
03.06.2023 12:08 24,0 C 14,1 C 27,1 C 20,3 C 40 % 40 % 1018,6 hPa 0,0 l/m 13,7 km/h (3 Bft) O-NO 67 0,7 C 10,6 C 13,5 km/h (3 Bft)
03.06.2023 12:06 24,0 C 14,2 C 26,5 C 20,3 C 40 % 40 % 1018,6 hPa 0,0 l/m 12,2 km/h (2 Bft) O-NO 67 0,8 C 11,3 C 31,6 km/h (5 Bft)
03.06.2023 12:04 24,1 C 14,0 C 26,5 C 20,3 C 40 % 39 % 1018,6 hPa 0,0 l/m 11,1 km/h (2 Bft) N 360 0,3 C 11,5 C 24,9 km/h (4 Bft)
03.06.2023 12:02 24,1 C 14,1 C 26,3 C 20,3 C 40 % 42 % 1018,6 hPa 0,0 l/m 10,6 km/h (2 Bft) O-NO 67 1,4 C 11,8 C 23,2 km/h (4 Bft)
03.06.2023 12:00 24,0 C 14,3 C 26,0 C 20,3 C 39 % 41 % 1018,6 hPa 0,0 l/m 10,6 km/h (2 Bft) NO 45 1,2 C 12,1 C 19,6 km/h (3 Bft)
03.06.2023 11:58 24,0 C 14,3 C 27,9 C 20,3 C 40 % 42 % 1018,6 hPa 0,0 l/m 10,1 km/h (2 Bft) SO 135 1,6 C 12,3 C 23,9 km/h (4 Bft)
03.06.2023 11:56 24,1 C 14,1 C 27,0 C 20,3 C 39 % 40 % 1018,6 hPa 0,0 l/m 10,5 km/h (2 Bft) SO 135 0,7 C 11,9 C 12,3 km/h (3 Bft)
03.06.2023 11:54 24,1 C 14,5 C 26,8 C 20,3 C 39 % 43 % 1018,6 hPa 0,0 l/m 11,4 km/h (2 Bft) O-SO 112 2,1 C 11,9 C 16,4 km/h (3 Bft)
03.06.2023 11:52 24,0 C 14,2 C 26,6 C 20,3 C 39 % 42 % 1018,6 hPa 0,0 l/m 11,4 km/h (2 Bft) SO 135 1,5 C 11,6 C 16,2 km/h (3 Bft)
03.06.2023 11:50 24,1 C 14,3 C 27,2 C 20,3 C 39 % 41 % 1018,8 hPa 0,0 l/m 10,8 km/h (2 Bft) N 360 1,2 C 12,0 C 35,7 km/h (5 Bft)
03.06.2023 11:48 24,0 C 14,6 C 26,9 C 20,3 C 39 % 42 % 1018,8 hPa 0,0 l/m 10,6 km/h (2 Bft) O-NO 67 1,8 C 12,4 C 17,6 km/h (3 Bft)
03.06.2023 11:46 24,1 C 14,4 C 26,0 C 20,3 C 39 % 43 % 1018,8 hPa 0,0 l/m 10,8 km/h (2 Bft) SO 135 2,0 C 12,1 C 17,1 km/h (3 Bft)
03.06.2023 11:44 24,0 C 14,3 C 26,4 C 20,3 C 39 % 42 % 1018,8 hPa 0,0 l/m 10,9 km/h (2 Bft) NO 45 1,6 C 11,9 C 16,7 km/h (3 Bft)
03.06.2023 11:42 24,0 C 14,4 C 26,5 C 20,3 C 39 % 44 % 1018,8 hPa 0,0 l/m 10,9 km/h (2 Bft) SO 135 2,3 C 12,0 C 13,3 km/h (3 Bft)
03.06.2023 11:40 24,0 C 13,8 C 25,1 C 20,3 C 39 % 41 % 1018,8 hPa 0,0 l/m 11,4 km/h (2 Bft) SO 135 0,8 C 11,1 C 11,6 km/h (2 Bft)
03.06.2023 11:38 24,1 C 13,8 C 24,6 C 20,3 C 39 % 43 % 1018,8 hPa 0,0 l/m 12,1 km/h (2 Bft) O-NO 67 1,4 C 10,8 C 26,3 km/h (4 Bft)
03.06.2023 11:36 24,0 C 13,7 C 24,6 C 20,3 C 39 % 40 % 1018,8 hPa 0,0 l/m 12,7 km/h (3 Bft) O-NO 67 0,4 C 10,5 C 13,8 km/h (3 Bft)
03.06.2023 11:34 24,1 C 13,7 C 24,0 C 20,3 C 39 % 40 % 1018,8 hPa 0,0 l/m 13,4 km/h (3 Bft) SO 135 0,4 C 10,2 C 22,9 km/h (4 Bft)
03.06.2023 11:32 24,1 C 14,0 C 25,9 C 20,3 C 39 % 40 % 1018,8 hPa 0,0 l/m 12,7 km/h (3 Bft) SO 135 0,6 C 10,8 C 17,6 km/h (3 Bft)
03.06.2023 11:30 24,1 C 13,5 C 24,9 C 20,3 C 39 % 40 % 1018,6 hPa 0,0 l/m 13,4 km/h (3 Bft) W-NW 292 0,2 C 10,0 C 21,2 km/h (4 Bft)
03.06.2023 11:28 24,1 C 13,6 C 23,2 C 20,2 C 39 % 41 % 1018,6 hPa 0,0 l/m 14,0 km/h (3 Bft) O-NO 67 0,6 C 9,9 C 23,9 km/h (4 Bft)
03.06.2023 11:26 24,1 C 13,7 C 23,2 C 20,2 C 39 % 40 % 1018,6 hPa 0,0 l/m 12,9 km/h (3 Bft) SO 135 0,4 C 10,4 C 29,5 km/h (5 Bft)
03.06.2023 11:24 24,1 C 13,8 C 25,2 C 20,2 C 39 % 39 % 1018,6 hPa 0,0 l/m 11,4 km/h (2 Bft) O 90 0,1 C 11,1 C 22,0 km/h (4 Bft)
03.06.2023 11:22 24,1 C 13,8 C 25,3 C 20,2 C 39 % 41 % 1018,6 hPa 0,0 l/m 11,7 km/h (2 Bft) O-SO 112 0,8 C 11,0 C 21,7 km/h (4 Bft)
03.06.2023 11:20 24,1 C 13,8 C 25,0 C 20,2 C 39 % 40 % 1018,6 hPa 0,0 l/m 11,7 km/h (2 Bft) SO 135 0,4 C 11,0 C 26,3 km/h (4 Bft)
03.06.2023 11:18 24,1 C 14,0 C 24,2 C 20,2 C 39 % 42 % 1018,6 hPa 0,0 l/m 11,4 km/h (2 Bft) SO 135 1,3 C 11,4 C 33,6 km/h (5 Bft)
03.06.2023 11:16 24,1 C 14,0 C 25,1 C 20,2 C 39 % 43 % 1018,6 hPa 0,0 l/m 10,6 km/h (2 Bft) O 90 1,6 C 11,7 C 21,7 km/h (4 Bft)
03.06.2023 11:14 24,0 C 13,5 C 25,4 C 20,2 C 39 % 43 % 1018,6 hPa 0,0 l/m 10,8 km/h (2 Bft) O-NO 67 1,2 C 11,1 C 15,0 km/h (3 Bft)
03.06.2023 11:12 24,0 C 14,0 C 24,8 C 20,2 C 39 % 43 % 1018,6 hPa 0,0 l/m 10,6 km/h (2 Bft) NO 45 1,6 C 11,7 C 18,3 km/h (3 Bft)
03.06.2023 11:10 24,0 C 13,8 C 24,8 C 20,2 C 39 % 42 % 1018,6 hPa 0,0 l/m 10,6 km/h (2 Bft) O-NO 67 1,1 C 11,5 C 24,9 km/h (4 Bft)
03.06.2023 11:08 24,0 C 13,8 C 24,4 C 20,1 C 39 % 42 % 1018,6 hPa 0,0 l/m 10,1 km/h (2 Bft) SO 135 1,1 C 11,7 C 21,0 km/h (4 Bft)
03.06.2023 11:06 24,0 C 13,7 C 24,8 C 20,1 C 39 % 41 % 1018,6 hPa 0,0 l/m 10,6 km/h (2 Bft) O-SO 112 0,7 C 11,4 C 20,0 km/h (4 Bft)
03.06.2023 11:04 24,0 C 13,6 C 24,2 C 20,1 C 39 % 40 % 1018,6 hPa 0,0 l/m 11,3 km/h (2 Bft) O 90 0,3 C 11,0 C 22,0 km/h (4 Bft)
03.06.2023 11:02 24,0 C 13,8 C 24,8 C 20,1 C 39 % 43 % 1018,6 hPa 0,0 l/m 11,4 km/h (2 Bft) SO 135 1,4 C 11,1 C 14,2 km/h (3 Bft)
03.06.2023 11:00 24,0 C 13,5 C 25,1 C 20,1 C 39 % 41 % 1018,6 hPa 0,0 l/m 12,4 km/h (3 Bft) NO 45 0,5 C 10,4 C 28,0 km/h (4 Bft)
03.06.2023 10:58 24,0 C 13,4 C 25,0 C 20,1 C 39 % 44 % 1018,6 hPa 0,0 l/m 13,2 km/h (3 Bft) O-NO 67 1,4 C 9,9 C 17,1 km/h (3 Bft)
03.06.2023 10:56 24,0 C 13,4 C 24,7 C 20,1 C 39 % 44 % 1018,6 hPa 0,0 l/m 13,4 km/h (3 Bft) O-NO 67 1,4 C 9,9 C 21,0 km/h (4 Bft)
03.06.2023 10:54 24,0 C 13,3 C 24,2 C 20,1 C 39 % 41 % 1018,6 hPa 0,0 l/m 14,5 km/h (3 Bft) NO 45 0,3 C 9,3 C 21,5 km/h (4 Bft)
03.06.2023 10:52 24,0 C 13,7 C 23,6 C 20,1 C 39 % 42 % 1018,6 hPa 0,0 l/m 14,2 km/h (3 Bft) N-NO 22 1,0 C 9,9 C 22,4 km/h (4 Bft)
03.06.2023 10:50 24,0 C 13,7 C 23,9 C 20,1 C 39 % 42 % 1018,6 hPa 0,0 l/m 13,4 km/h (3 Bft) O-NO 67 1,0 C 10,2 C 28,7 km/h (4 Bft)
03.06.2023 10:48 24,0 C 13,7 C 23,9 C 20,1 C 39 % 43 % 1018,6 hPa 0,0 l/m 13,0 km/h (3 Bft) NO 45 1,4 C 10,4 C 29,5 km/h (5 Bft)
03.06.2023 10:46 24,0 C 13,4 C 24,0 C 20,3 C 39 % 44 % 1018,6 hPa 0,0 l/m 12,1 km/h (2 Bft) SO 135 1,4 C 10,4 C 21,2 km/h (4 Bft)
03.06.2023 10:44 24,0 C 13,2 C 24,2 C 20,3 C 39 % 41 % 1018,6 hPa 0,0 l/m 11,3 km/h (2 Bft) N 360 0,2 C 10,5 C 29,5 km/h (5 Bft)
03.06.2023 10:42 24,0 C 13,4 C 24,6 C 20,3 C 39 % 44 % 1018,6 hPa 0,0 l/m 10,3 km/h (2 Bft) O-NO 67 1,4 C 11,2 C 13,8 km/h (3 Bft)
03.06.2023 10:40 24,0 C 13,3 C 24,6 C 20,3 C 39 % 44 % 1018,6 hPa 0,0 l/m 10,8 km/h (2 Bft) O 90 1,3 C 10,9 C 19,1 km/h (3 Bft)
03.06.2023 10:38 24,0 C 13,3 C 24,1 C 20,2 C 38 % 43 % 1018,6 hPa 0,0 l/m 10,9 km/h (2 Bft) SO 135 1,0 C 10,8 C 28,2 km/h (4 Bft)
03.06.2023 10:36 24,0 C 12,7 C 23,5 C 20,3 C 38 % 43 % 1018,6 hPa 0,0 l/m 10,8 km/h (2 Bft) O-NO 67 0,5 C 10,2 C 18,8 km/h (3 Bft)
03.06.2023 10:34 23,9 C 13,0 C 23,2 C 20,3 C 38 % 41 % 1018,6 hPa 0,0 l/m 10,8 km/h (2 Bft) O 90 0,1 C 10,5 C 22,9 km/h (4 Bft)
03.06.2023 10:32 23,9 C 12,6 C 22,8 C 20,3 C 38 % 42 % 1018,6 hPa 0,0 l/m 10,9 km/h (2 Bft) SO 135 0,0 C 10,0 C 21,2 km/h (4 Bft)
03.06.2023 10:30 23,9 C 12,8 C 23,6 C 20,3 C 38 % 43 % 1018,8 hPa 0,0 l/m 10,5 km/h (2 Bft) SO 135 0,5 C 10,4 C 17,4 km/h (3 Bft)
03.06.2023 10:28 23,9 C 12,7 C 23,9 C 20,2 C 38 % 45 % 1018,8 hPa 0,0 l/m 10,5 km/h (2 Bft) SO 135 1,1 C 10,3 C 27,3 km/h (4 Bft)
03.06.2023 10:26 23,9 C 12,7 C 23,5 C 20,3 C 38 % 44 % 1018,8 hPa 0,0 l/m 10,8 km/h (2 Bft) O 90 0,8 C 10,2 C 19,3 km/h (3 Bft)
03.06.2023 10:24 23,9 C 12,9 C 23,7 C 20,2 C 38 % 43 % 1018,8 hPa 0,0 l/m 11,6 km/h (2 Bft) S-SO 157 0,6 C 10,0 C 18,8 km/h (3 Bft)
03.06.2023 10:22 23,8 C 13,4 C 24,5 C 20,3 C 38 % 44 % 1018,8 hPa 0,0 l/m 12,4 km/h (3 Bft) SO 135 1,4 C 10,3 C 20,0 km/h (4 Bft)
03.06.2023 10:20 23,8 C 12,7 C 22,7 C 20,2 C 37 % 45 % 1018,8 hPa 0,0 l/m 12,9 km/h (3 Bft) O-SO 112 1,1 C 9,2 C 16,9 km/h (3 Bft)
03.06.2023 10:18 23,8 C 12,6 C 22,4 C 20,3 C 37 % 43 % 1018,8 hPa 0,0 l/m 12,9 km/h (3 Bft) O-NO 67 0,4 C 9,1 C 15,7 km/h (3 Bft)
03.06.2023 10:16 23,8 C 12,6 C 22,4 C 20,3 C 37 % 42 % 1018,8 hPa 0,0 l/m 12,4 km/h (3 Bft) O-NO 67 0,0 C 9,3 C 20,5 km/h (4 Bft)
03.06.2023 10:14 23,8 C 12,6 C 22,0 C 20,3 C 37 % 43 % 1018,8 hPa 0,0 l/m 12,2 km/h (2 Bft) O-SO 112 0,4 C 9,4 C 17,1 km/h (3 Bft)
03.06.2023 10:12 23,8 C 12,6 C 22,2 C 20,3 C 37 % 43 % 1018,8 hPa 0,0 l/m 11,7 km/h (2 Bft) O-NO 67 0,4 C 9,6 C 29,7 km/h (5 Bft)
03.06.2023 10:10 23,8 C 12,7 C 22,4 C 20,3 C 37 % 45 % 1018,6 hPa 0,0 l/m 11,1 km/h (2 Bft) O-NO 67 1,1 C 10,0 C 23,7 km/h (4 Bft)
03.06.2023 10:08 23,8 C 12,6 C 22,8 C 20,3 C 37 % 43 % 1018,6 hPa 0,0 l/m 11,6 km/h (2 Bft) O 90 0,4 C 9,7 C 15,0 km/h (3 Bft)
03.06.2023 10:06 23,8 C 12,4 C 22,2 C 20,3 C 37 % 43 % 1018,6 hPa 0,0 l/m 11,9 km/h (2 Bft) O-NO 67 0,2 C 9,3 C 25,8 km/h (4 Bft)
03.06.2023 10:04 23,8 C 12,4 C 21,9 C 20,3 C 36 % 43 % 1018,6 hPa 0,0 l/m 11,6 km/h (2 Bft) SO 135 0,2 C 9,5 C 24,9 km/h (4 Bft)
03.06.2023 10:02 23,8 C 12,3 C 21,4 C 20,2 C 36 % 43 % 1018,6 hPa 0,0 l/m 11,4 km/h (2 Bft) O-SO 112 0,1 C 9,4 C 12,8 km/h (3 Bft)
03.06.2023 10:00 23,9 C 12,5 C 21,8 C 20,2 C 36 % 44 % 1018,6 hPa 0,0 l/m 10,9 km/h (2 Bft) SO 135 0,6 C 9,9 C 27,3 km/h (4 Bft)
03.06.2023 09:58 23,9 C 12,6 C 22,3 C 20,2 C 36 % 45 % 1018,6 hPa 0,0 l/m 10,1 km/h (2 Bft) NO 45 1,0 C 10,4 C 22,2 km/h (4 Bft)
03.06.2023 09:56 23,9 C 12,7 C 22,4 C 20,2 C 36 % 45 % 1018,6 hPa 0,0 l/m 10,1 km/h (2 Bft) NO 45 1,1 C 10,5 C 19,8 km/h (3 Bft)
03.06.2023 09:54 24,0 C 12,5 C 22,4 C 20,2 C 37 % 44 % 1018,6 hPa 0,0 l/m 9,8 km/h (2 Bft) O-NO 67 0,6 C 10,5 C 18,1 km/h (3 Bft)
03.06.2023 09:52 24,0 C 12,7 C 22,5 C 20,2 C 37 % 45 % 1018,6 hPa 0,0 l/m 9,8 km/h (2 Bft) O-SO 112 1,1 C 10,7 C 15,4 km/h (3 Bft)
03.06.2023 09:50 24,0 C 12,5 C 22,7 C 20,2 C 37 % 47 % 1018,7 hPa 0,0 l/m 10,5 km/h (2 Bft) O-NO 67 1,5 C 10,1 C 12,6 km/h (3 Bft)
03.06.2023 09:48 24,0 C 12,5 C 21,9 C 20,2 C 37 % 44 % 1018,7 hPa 0,0 l/m 10,8 km/h (2 Bft) O-NO 67 0,6 C 10,0 C 22,0 km/h (4 Bft)
03.06.2023 09:46 24,0 C 12,3 C 22,3 C 20,2 C 37 % 47 % 1018,7 hPa 0,0 l/m 10,3 km/h (2 Bft) O-SO 112 1,3 C 10,0 C 15,4 km/h (3 Bft)
03.06.2023 09:44 24,0 C 12,2 C 22,1 C 20,1 C 37 % 45 % 1018,7 hPa 0,0 l/m 11,1 km/h (2 Bft) SO 135 0,6 C 9,5 C 18,3 km/h (3 Bft)
03.06.2023 09:42 24,1 C 12,3 C 22,1 C 20,1 C 37 % 47 % 1018,7 hPa 0,0 l/m 11,6 km/h (2 Bft) S-SO 157 1,3 C 9,3 C 17,9 km/h (3 Bft)
03.06.2023 09:40 24,1 C 12,2 C 21,6 C 20,1 C 38 % 45 % 1018,7 hPa 0,0 l/m 11,3 km/h (2 Bft) SO 135 0,6 C 9,4 C 25,3 km/h (4 Bft)
03.06.2023 09:38 24,1 C 12,2 C 21,6 C 20,1 C 38 % 45 % 1018,7 hPa 0,0 l/m 10,9 km/h (2 Bft) O-SO 112 0,6 C 9,6 C 22,7 km/h (4 Bft)
03.06.2023 09:36 24,1 C 12,0 C 21,0 C 20,1 C 39 % 44 % 1018,7 hPa 0,0 l/m 11,6 km/h (2 Bft) SO 135 0,1 C 9,0 C 18,1 km/h (3 Bft)
03.06.2023 09:34 24,2 C 12,1 C 20,8 C 20,1 C 39 % 43 % 1018,7 hPa 0,0 l/m 11,4 km/h (2 Bft) O-SO 112 -0,1 C 9,2 C 17,6 km/h (3 Bft)
03.06.2023 09:32 24,2 C 12,1 C 21,1 C 20,1 C 41 % 45 % 1018,7 hPa 0,0 l/m 10,5 km/h (2 Bft) SO 135 0,5 C 9,7 C 16,2 km/h (3 Bft)
03.06.2023 09:30 24,2 C 12,0 C 21,1 C 20,1 C 41 % 46 % 1018,9 hPa 0,0 l/m 10,3 km/h (2 Bft) SO 135 0,7 C 9,6 C 17,1 km/h (3 Bft)
03.06.2023 09:28 24,2 C 12,0 C 20,7 C 20,1 C 41 % 46 % 1018,9 hPa 0,0 l/m 10,0 km/h (2 Bft) SO 135 0,7 C 9,8 C 15,2 km/h (3 Bft)
03.06.2023 09:26 24,1 C 11,9 C 21,0 C 20,1 C 41 % 46 % 1018,9 hPa 0,0 l/m 9,7 km/h (2 Bft) SO 135 0,7 C 9,9 C 26,6 km/h (4 Bft)
03.06.2023 09:24 24,1 C 11,9 C 20,5 C 20,1 C 41 % 46 % 1018,9 hPa 0,0 l/m 10,0 km/h (2 Bft) O 90 0,7 C 9,7 C 18,1 km/h (3 Bft)
03.06.2023 09:22 24,1 C 11,9 C 20,4 C 20,1 C 41 % 47 % 1018,9 hPa 0,0 l/m 10,0 km/h (2 Bft) NO 45 1,0 C 9,7 C 22,2 km/h (4 Bft)
03.06.2023 09:20 24,1 C 11,9 C 21,1 C 20,1 C 41 % 48 % 1018,9 hPa 0,0 l/m 10,1 km/h (2 Bft) O 90 1,2 C 9,6 C 24,9 km/h (4 Bft)
03.06.2023 09:18 24,1 C 11,9 C 20,9 C 20,0 C 41 % 49 % 1018,9 hPa 0,0 l/m 10,5 km/h (2 Bft) O-NO 67 1,5 C 9,4 C 14,5 km/h (3 Bft)
03.06.2023 09:16 24,1 C 11,9 C 20,9 C 20,1 C 41 % 51 % 1018,9 hPa 0,0 l/m 11,6 km/h (2 Bft) O-SO 112 2,1 C 8,9 C 21,5 km/h (4 Bft)
03.06.2023 09:14 24,1 C 11,7 C 21,0 C 20,1 C 41 % 52 % 1018,9 hPa 0,0 l/m 11,6 km/h (2 Bft) O-NO 67 2,2 C 8,7 C 17,4 km/h (3 Bft)
03.06.2023 09:12 24,1 C 11,3 C 19,9 C 20,0 C 41 % 51 % 1018,9 hPa 0,0 l/m 12,1 km/h (2 Bft) O-NO 67 1,5 C 8,0 C 19,3 km/h (3 Bft)
03.06.2023 09:10 24,1 C 11,0 C 18,7 C 20,0 C 41 % 50 % 1018,7 hPa 0,0 l/m 12,6 km/h (3 Bft) SO 135 1,0 C 7,4 C 22,4 km/h (4 Bft)
03.06.2023 09:08 24,1 C 11,2 C 19,0 C 20,0 C 41 % 50 % 1018,7 hPa 0,0 l/m 12,7 km/h (3 Bft) O 90 1,2 C 7,6 C 23,2 km/h (4 Bft)
03.06.2023 09:06 24,1 C 11,2 C 19,3 C 20,0 C 41 % 51 % 1018,7 hPa 0,0 l/m 13,2 km/h (3 Bft) SO 135 1,4 C 7,3 C 26,8 km/h (4 Bft)
03.06.2023 09:04 24,1 C 11,3 C 19,3 C 20,0 C 41 % 51 % 1018,7 hPa 0,0 l/m 13,4 km/h (3 Bft) O-SO 112 1,5 C 7,4 C 18,8 km/h (3 Bft)
03.06.2023 09:02 24,1 C 11,3 C 18,9 C 19,9 C 41 % 52 % 1018,7 hPa 0,0 l/m 12,9 km/h (3 Bft) S-SO 157 1,8 C 7,6 C 25,1 km/h (4 Bft)
03.06.2023 09:00 24,1 C 11,2 C 18,7 C 19,9 C 41 % 51 % 1018,7 hPa 0,0 l/m 13,0 km/h (3 Bft) O-SO 112 1,4 C 7,4 C 19,8 km/h (3 Bft)
03.06.2023 08:58 24,1 C 11,0 C 18,6 C 19,9 C 41 % 51 % 1018,7 hPa 0,0 l/m 13,7 km/h (3 Bft) SO 135 1,3 C 6,9 C 21,2 km/h (4 Bft)
03.06.2023 08:56 24,1 C 11,2 C 19,1 C 19,9 C 41 % 51 % 1018,7 hPa 0,0 l/m 13,7 km/h (3 Bft) SO 135 1,4 C 7,1 C 27,0 km/h (4 Bft)
03.06.2023 08:54 24,1 C 11,2 C 18,7 C 19,9 C 41 % 51 % 1018,7 hPa 0,0 l/m 14,0 km/h (3 Bft) SO 135 1,4 C 7,0 C 17,6 km/h (3 Bft)
03.06.2023 08:52 24,1 C 11,2 C 18,4 C 19,9 C 41 % 52 % 1018,7 hPa 0,0 l/m 14,6 km/h (3 Bft) O-SO 112 1,7 C 6,7 C 19,1 km/h (3 Bft)
03.06.2023 08:50 24,1 C 11,3 C 18,1 C 19,9 C 41 % 52 % 1018,6 hPa 0,0 l/m 15,0 km/h (3 Bft) O-NO 67 1,8 C 6,7 C 23,7 km/h (4 Bft)
03.06.2023 08:48 24,1 C 11,2 C 17,9 C 20,0 C 41 % 53 % 1018,6 hPa 0,0 l/m 14,3 km/h (3 Bft) O-NO 67 2,0 C 6,9 C 22,4 km/h (4 Bft)
03.06.2023 08:46 24,1 C 11,2 C 17,8 C 20,0 C 41 % 52 % 1018,6 hPa 0,0 l/m 13,7 km/h (3 Bft) O-NO 67 1,7 C 7,1 C 32,8 km/h (5 Bft)
03.06.2023 08:44 24,1 C 11,2 C 17,6 C 20,0 C 41 % 53 % 1018,6 hPa 0,0 l/m 13,5 km/h (3 Bft) SO 135 2,0 C 7,2 C 36,2 km/h (5 Bft)
03.06.2023 08:42 24,1 C 11,0 C 17,6 C 20,0 C 41 % 53 % 1018,6 hPa 0,0 l/m 13,0 km/h (3 Bft) O 90 1,8 C 7,2 C 19,6 km/h (3 Bft)
03.06.2023 08:40 24,1 C 11,0 C 17,6 C 20,0 C 41 % 54 % 1018,6 hPa 0,0 l/m 12,4 km/h (3 Bft) O 90 2,1 C 7,5 C 18,1 km/h (3 Bft)
03.06.2023 08:38 24,1 C 10,9 C 17,6 C 20,0 C 41 % 53 % 1018,6 hPa 0,0 l/m 12,2 km/h (2 Bft) O-SO 112 1,7 C 7,5 C 18,3 km/h (3 Bft)
03.06.2023 08:36 24,1 C 11,0 C 17,2 C 20,1 C 41 % 55 % 1018,6 hPa 0,0 l/m 12,1 km/h (2 Bft) NO 45 2,3 C 7,6 C 20,5 km/h (4 Bft)
03.06.2023 08:34 24,1 C 11,0 C 17,2 C 20,1 C 41 % 53 % 1018,6 hPa 0,0 l/m 12,1 km/h (2 Bft) O 90 1,8 C 7,6 C 27,3 km/h (4 Bft)
03.06.2023 08:32 24,1 C 11,0 C 17,1 C 20,1 C 41 % 53 % 1018,6 hPa 0,0 l/m 11,4 km/h (2 Bft) O-NO 67 1,8 C 8,0 C 22,7 km/h (4 Bft)
03.06.2023 08:30 24,1 C 11,0 C 16,9 C 20,1 C 41 % 55 % 1018,5 hPa 0,0 l/m 11,7 km/h (2 Bft) O-SO 112 2,3 C 7,8 C 21,0 km/h (4 Bft)
03.06.2023 08:28 24,0 C 10,9 C 16,8 C 20,1 C 41 % 56 % 1018,5 hPa 0,0 l/m 12,1 km/h (2 Bft) O-NO 67 2,5 C 7,5 C 18,8 km/h (3 Bft)
03.06.2023 08:26 24,0 C 10,8 C 16,7 C 20,1 C 41 % 56 % 1018,5 hPa 0,0 l/m 12,7 km/h (3 Bft) O-NO 67 2,4 C 7,1 C 24,1 km/h (4 Bft)
03.06.2023 08:24 24,0 C 10,9 C 17,0 C 20,1 C 41 % 57 % 1018,5 hPa 0,0 l/m 12,7 km/h (3 Bft) NO 45 2,7 C 7,2 C 27,3 km/h (4 Bft)
03.06.2023 08:22 24,0 C 10,9 C 17,0 C 20,2 C 41 % 58 % 1018,5 hPa 0,0 l/m 12,6 km/h (3 Bft) NO 45 3,0 C 7,3 C 17,9 km/h (3 Bft)
03.06.2023 08:20 24,0 C 10,9 C 16,9 C 20,2 C 41 % 58 % 1018,5 hPa 0,0 l/m 12,1 km/h (2 Bft) NO 45 3,0 C 7,5 C 25,3 km/h (4 Bft)
03.06.2023 08:18 24,0 C 10,8 C 16,6 C 20,2 C 41 % 58 % 1018,5 hPa 0,0 l/m 11,7 km/h (2 Bft) O-NO 67 2,9 C 7,6 C 26,6 km/h (4 Bft)
03.06.2023 08:16 24,0 C 10,7 C 16,6 C 20,2 C 41 % 58 % 1018,5 hPa 0,0 l/m 10,9 km/h (2 Bft) NO 45 2,8 C 7,9 C 15,2 km/h (3 Bft)
03.06.2023 08:14 24,0 C 10,7 C 16,1 C 20,2 C 41 % 58 % 1018,5 hPa 0,0 l/m 11,1 km/h (2 Bft) S-SO 157 2,8 C 7,8 C 15,4 km/h (3 Bft)
03.06.2023 08:12 24,0 C 10,6 C 16,1 C 20,2 C 41 % 58 % 1018,5 hPa 0,0 l/m 11,6 km/h (2 Bft) NO 45 2,7 C 7,4 C 19,3 km/h (3 Bft)
03.06.2023 08:10 24,0 C 10,8 C 16,1 C 20,2 C 41 % 60 % 1018,5 hPa 0,0 l/m 11,1 km/h (2 Bft) O-NO 67 3,4 C 7,9 C 20,8 km/h (4 Bft)
03.06.2023 08:08 24,0 C 10,6 C 16,0 C 20,2 C 41 % 59 % 1018,5 hPa 0,0 l/m 10,6 km/h (2 Bft) NO 45 2,9 C 7,9 C 21,5 km/h (4 Bft)
03.06.2023 08:06 24,0 C 10,5 C 15,8 C 20,2 C 41 % 59 % 1018,5 hPa 0,0 l/m 10,0 km/h (2 Bft) NO 45 2,8 C 8,1 C 18,6 km/h (3 Bft)
03.06.2023 08:04 24,0 C 10,5 C 16,2 C 20,2 C 41 % 60 % 1018,5 hPa 0,0 l/m 10,8 km/h (2 Bft) O-NO 67 3,1 C 7,7 C 23,7 km/h (4 Bft)
03.06.2023 08:02 24,0 C 10,5 C 16,0 C 20,2 C 41 % 59 % 1018,5 hPa 0,0 l/m 10,3 km/h (2 Bft) NO 45 2,8 C 8,0 C 22,4 km/h (4 Bft)
03.06.2023 08:00 24,0 C 10,6 C 15,9 C 20,2 C 41 % 61 % 1018,5 hPa 0,0 l/m 10,6 km/h (2 Bft) NO 45 3,4 C 7,9 C 7,7 km/h (2 Bft)
03.06.2023 07:58 24,0 C 10,5 C 15,4 C 20,2 C 41 % 60 % 1018,5 hPa 0,0 l/m 11,6 km/h (2 Bft) O-NO 67 3,1 C 7,3 C 17,1 km/h (3 Bft)
03.06.2023 07:56 24,0 C 10,3 C 14,5 C 20,2 C 41 % 60 % 1018,5 hPa 0,0 l/m 12,2 km/h (2 Bft) N 360 2,9 C 6,8 C 25,1 km/h (4 Bft)
03.06.2023 07:54 24,0 C 10,2 C 14,3 C 20,2 C 41 % 60 % 1018,5 hPa 0,0 l/m 11,4 km/h (2 Bft) O-NO 67 2,8 C 7,1 C 23,7 km/h (4 Bft)
03.06.2023 07:52 24,0 C 10,0 C 13,9 C 20,2 C 41 % 59 % 1018,5 hPa 0,0 l/m 10,6 km/h (2 Bft) NO 45 2,4 C 7,3 C 20,3 km/h (4 Bft)
03.06.2023 07:50 23,9 C 9,9 C 13,6 C 20,2 C 40 % 59 % 1018,4 hPa 0,0 l/m 10,8 km/h (2 Bft) O-SO 112 2,3 C 7,0 C 23,4 km/h (4 Bft)
03.06.2023 07:48 23,9 C 10,0 C 13,6 C 20,2 C 40 % 58 % 1018,4 hPa 0,0 l/m 10,1 km/h (2 Bft) O 90 2,1 C 7,5 C 19,3 km/h (3 Bft)
03.06.2023 07:46 23,9 C 10,3 C 14,2 C 20,2 C 40 % 60 % 1018,4 hPa 0,0 l/m 10,1 km/h (2 Bft) O-NO 67 2,9 C 7,9 C 29,0 km/h (5 Bft)
03.06.2023 07:44 23,9 C 10,1 C 14,1 C 20,1 C 40 % 61 % 1018,4 hPa 0,0 l/m 10,3 km/h (2 Bft) O-NO 67 2,9 C 7,5 C 10,4 km/h (2 Bft)
03.06.2023 07:42 23,9 C 10,1 C 13,8 C 20,2 C 40 % 61 % 1018,4 hPa 0,0 l/m 11,6 km/h (2 Bft) O-NO 67 2,9 C 6,8 C 14,2 km/h (3 Bft)
03.06.2023 07:40 23,9 C 10,2 C 13,8 C 20,2 C 40 % 61 % 1018,4 hPa 0,0 l/m 12,1 km/h (2 Bft) NO 45 3,0 C 6,7 C 19,8 km/h (3 Bft)
03.06.2023 07:38 23,9 C 10,0 C 13,5 C 20,2 C 40 % 61 % 1018,4 hPa 0,0 l/m 12,1 km/h (2 Bft) O-NO 67 2,8 C 6,5 C 20,3 km/h (4 Bft)
03.06.2023 07:36 23,9 C 9,8 C 12,9 C 20,3 C 40 % 61 % 1018,4 hPa 0,0 l/m 11,6 km/h (2 Bft) O 90 2,6 C 6,5 C 23,2 km/h (4 Bft)
03.06.2023 07:34 23,9 C 9,8 C 12,5 C 20,3 C 40 % 61 % 1018,4 hPa 0,0 l/m 10,8 km/h (2 Bft) O-NO 67 2,6 C 6,9 C 20,8 km/h (4 Bft)
03.06.2023 07:32 23,9 C 9,8 C 12,2 C 20,3 C 40 % 61 % 1018,4 hPa 0,0 l/m 10,3 km/h (2 Bft) O-NO 67 2,6 C 7,2 C 27,8 km/h (4 Bft)
03.06.2023 07:30 23,9 C 9,8 C 11,1 C 20,3 C 41 % 61 % 1018,2 hPa 0,0 l/m 10,3 km/h (2 Bft) O-NO 67 2,6 C 7,2 C 24,6 km/h (4 Bft)
03.06.2023 07:28 23,9 C 9,9 C 10,1 C 20,3 C 41 % 61 % 1018,2 hPa 0,0 l/m 10,6 km/h (2 Bft) O 90 2,7 C 7,1 C 10,4 km/h (2 Bft)
03.06.2023 07:26 23,9 C 9,7 C 9,5 C 20,3 C 41 % 61 % 1018,2 hPa 0,0 l/m 11,1 km/h (2 Bft) O-SO 112 2,5 C 6,6 C 17,1 km/h (3 Bft)
03.06.2023 07:24 23,9 C 9,5 C 9,3 C 20,3 C 41 % 61 % 1018,2 hPa 0,0 l/m 11,4 km/h (2 Bft) O-SO 112 2,4 C 6,3 C 19,1 km/h (3 Bft)
03.06.2023 07:22 23,9 C 9,4 C 9,6 C 20,3 C 41 % 62 % 1018,2 hPa 0,0 l/m 11,3 km/h (2 Bft) S-SW 202 2,5 C 6,2 C 14,2 km/h (3 Bft)
03.06.2023 07:20 23,8 C 9,4 C 10,4 C 20,3 C 41 % 62 % 1018,2 hPa 0,0 l/m 10,9 km/h (2 Bft) O-SO 112 2,5 C 6,4 C 20,5 km/h (4 Bft)
03.06.2023 07:18 23,8 C 9,5 C 10,8 C 20,3 C 41 % 62 % 1018,2 hPa 0,0 l/m 10,1 km/h (2 Bft) O-SO 112 2,6 C 7,0 C 25,1 km/h (4 Bft)
03.06.2023 07:16 23,8 C 9,3 C 10,4 C 20,3 C 41 % 63 % 1018,2 hPa 0,0 l/m 10,1 km/h (2 Bft) SO 135 2,6 C 6,8 C 22,0 km/h (4 Bft)
03.06.2023 07:14 23,8 C 9,3 C 10,1 C 20,3 C 41 % 63 % 1018,2 hPa 0,0 l/m 11,3 km/h (2 Bft) O-SO 112 2,6 C 6,1 C 21,0 km/h (4 Bft)
03.06.2023 07:12 23,8 C 9,2 C 9,5 C 20,3 C 41 % 63 % 1018,2 hPa 0,0 l/m 11,4 km/h (2 Bft) O-NO 67 2,5 C 5,9 C 19,3 km/h (3 Bft)
03.06.2023 07:10 23,8 C 9,1 C 8,9 C 20,3 C 40 % 63 % 1018,2 hPa 0,0 l/m 11,7 km/h (2 Bft) SO 135 2,4 C 5,6 C 13,3 km/h (3 Bft)
03.06.2023 07:08 23,8 C 9,2 C 9,0 C 20,3 C 40 % 63 % 1018,2 hPa 0,0 l/m 10,9 km/h (2 Bft) SO 135 2,5 C 6,2 C 20,5 km/h (4 Bft)
03.06.2023 07:06 23,8 C 9,3 C 9,1 C 20,3 C 40 % 64 % 1018,2 hPa 0,0 l/m 10,3 km/h (2 Bft) O-NO 67 2,8 C 6,6 C 32,3 km/h (5 Bft)
03.06.2023 07:04 23,8 C 9,2 C 9,3 C 20,3 C 41 % 65 % 1018,2 hPa 0,0 l/m 9,0 km/h (2 Bft) O 90 3,0 C 7,3 C 19,6 km/h (3 Bft)
03.06.2023 07:02 23,8 C 9,1 C 9,4 C 20,3 C 41 % 65 % 1018,2 hPa 0,0 l/m 8,7 km/h (2 Bft) SO 135 2,9 C 7,4 C 24,4 km/h (4 Bft)
03.06.2023 07:00 23,8 C 8,8 C 9,3 C 20,3 C 41 % 65 % 1018,2 hPa 0,0 l/m 8,0 km/h (2 Bft) O-NO 67 2,6 C 7,6 C 15,2 km/h (3 Bft)
03.06.2023 06:58 23,8 C 8,6 C 8,3 C 20,3 C 41 % 65 % 1018,2 hPa 0,0 l/m 7,9 km/h (2 Bft) NO 45 2,4 C 7,5 C 20,5 km/h (4 Bft)
03.06.2023 06:56 23,8 C 8,5 C 8,3 C 20,3 C 41 % 65 % 1018,2 hPa 0,0 l/m 8,2 km/h (2 Bft) O-SO 112 2,3 C 7,1 C 13,8 km/h (3 Bft)
03.06.2023 06:54 23,8 C 8,5 C 8,3 C 20,3 C 41 % 66 % 1018,2 hPa 0,0 l/m 7,4 km/h (2 Bft) O-NO 67 2,5 C 7,7 C 15,0 km/h (3 Bft)
03.06.2023 06:52 23,8 C 8,5 C 8,1 C 20,3 C 41 % 66 % 1018,2 hPa 0,0 l/m 6,4 km/h (2 Bft) O 90 2,5 C 8,5 C 19,3 km/h (3 Bft)
03.06.2023 06:50 23,8 C 8,5 C 7,8 C 20,3 C 41 % 66 % 1018,1 hPa 0,0 l/m 6,0 km/h (2 Bft) O 90 2,5 C 8,5 C 12,1 km/h (2 Bft)
03.06.2023 06:48 23,8 C 8,5 C 7,8 C 20,3 C 41 % 66 % 1018,1 hPa 0,0 l/m 6,6 km/h (2 Bft) O-NO 67 2,5 C 8,4 C 12,8 km/h (3 Bft)
03.06.2023 06:46 23,8 C 8,5 C 7,6 C 20,3 C 41 % 66 % 1018,1 hPa 0,0 l/m 6,3 km/h (2 Bft) O 90 2,5 C 8,5 C 15,4 km/h (3 Bft)
03.06.2023 06:44 23,8 C 8,5 C 7,6 C 20,3 C 41 % 66 % 1018,1 hPa 0,0 l/m 6,8 km/h (2 Bft) O 90 2,5 C 8,2 C 8,0 km/h (2 Bft)
03.06.2023 06:42 23,8 C 8,5 C 7,6 C 20,3 C 41 % 66 % 1018,1 hPa 0,0 l/m 7,6 km/h (2 Bft) SO 135 2,5 C 7,6 C 6,3 km/h (2 Bft)
03.06.2023 06:40 23,8 C 8,5 C 7,7 C 20,3 C 41 % 66 % 1018,1 hPa 0,0 l/m 7,7 km/h (2 Bft) O 90 2,5 C 7,5 C 9,2 km/h (2 Bft)
03.06.2023 06:38 23,8 C 8,5 C 7,7 C 20,3 C 41 % 66 % 1018,1 hPa 0,0 l/m 8,2 km/h (2 Bft) O-SO 112 2,5 C 7,1 C 25,8 km/h (4 Bft)
03.06.2023 06:36 23,8 C 8,5 C 7,7 C 20,3 C 41 % 66 % 1018,1 hPa 0,0 l/m 7,4 km/h (2 Bft) SO 135 2,5 C 7,7 C 13,5 km/h (3 Bft)
03.06.2023 06:34 23,8 C 8,5 C 7,7 C 20,3 C 41 % 66 % 1018,1 hPa 0,0 l/m 6,9 km/h (2 Bft) O 90 2,5 C 8,1 C 14,0 km/h (3 Bft)
03.06.2023 06:32 23,8 C 8,5 C 7,8 C 20,3 C 41 % 66 % 1018,1 hPa 0,0 l/m 6,3 km/h (2 Bft) O-NO 67 2,5 C 8,5 C 14,0 km/h (3 Bft)
03.06.2023 06:30 23,8 C 8,6 C 7,9 C 20,3 C 42 % 66 % 1017,9 hPa 0,0 l/m 6,4 km/h (2 Bft) O 90 2,6 C 8,6 C 15,2 km/h (3 Bft)
03.06.2023 06:28 23,8 C 8,5 C 7,9 C 20,3 C 42 % 66 % 1017,9 hPa 0,0 l/m 6,0 km/h (2 Bft) O-NO 67 2,5 C 8,5 C 17,9 km/h (3 Bft)
03.06.2023 06:26 23,8 C 8,6 C 7,9 C 20,3 C 42 % 66 % 1017,9 hPa 0,0 l/m 6,6 km/h (2 Bft) O-NO 67 2,6 C 8,5 C 7,2 km/h (2 Bft)
03.06.2023 06:24 23,8 C 8,6 C 8,1 C 20,4 C 42 % 67 % 1017,9 hPa 0,0 l/m 7,6 km/h (2 Bft) O-SO 112 2,8 C 7,7 C 20,5 km/h (4 Bft)
03.06.2023 06:22 23,8 C 8,6 C 8,2 C 20,3 C 42 % 67 % 1017,9 hPa 0,0 l/m 8,2 km/h (2 Bft) O 90 2,8 C 7,2 C 8,4 km/h (2 Bft)
03.06.2023 06:20 23,8 C 8,6 C 8,4 C 20,4 C 42 % 67 % 1017,9 hPa 0,0 l/m 8,5 km/h (2 Bft) O-SO 112 2,8 C 7,0 C 13,8 km/h (3 Bft)
03.06.2023 06:18 23,8 C 8,8 C 8,6 C 20,4 C 42 % 67 % 1017,9 hPa 0,0 l/m 8,9 km/h (2 Bft) O-NO 67 3,0 C 7,0 C 11,3 km/h (2 Bft)
03.06.2023 06:16 23,8 C 8,8 C 8,8 C 20,4 C 42 % 67 % 1017,9 hPa 0,0 l/m 9,2 km/h (2 Bft) N-NO 22 3,0 C 6,8 C 18,8 km/h (3 Bft)
03.06.2023 06:14 23,8 C 8,8 C 8,9 C 20,3 C 42 % 67 % 1017,9 hPa 0,0 l/m 8,7 km/h (2 Bft) SO 135 3,0 C 7,1 C 15,2 km/h (3 Bft)
03.06.2023 06:12 23,8 C 8,8 C 9,1 C 20,3 C 42 % 68 % 1017,9 hPa 0,0 l/m 8,0 km/h (2 Bft) O 90 3,2 C 7,6 C 23,2 km/h (4 Bft)
03.06.2023 06:10 23,8 C 8,8 C 9,1 C 20,4 C 42 % 68 % 1017,9 hPa 0,0 l/m 8,0 km/h (2 Bft) O-SO 112 3,2 C 7,6 C 15,4 km/h (3 Bft)
03.06.2023 06:08 23,8 C 8,6 C 8,9 C 20,4 C 42 % 69 % 1017,9 hPa 0,0 l/m 8,2 km/h (2 Bft) O-NO 67 3,2 C 7,2 C 18,1 km/h (3 Bft)
03.06.2023 06:06 23,8 C 8,6 C 8,6 C 20,4 C 42 % 69 % 1017,9 hPa 0,0 l/m 7,2 km/h (2 Bft) O-SO 112 3,2 C 8,0 C 19,1 km/h (3 Bft)
03.06.2023 06:04 23,8 C 8,5 C 8,2 C 20,4 C 42 % 69 % 1017,9 hPa 0,0 l/m 6,4 km/h (2 Bft) O-NO 67 3,1 C 8,5 C 16,4 km/h (3 Bft)
03.06.2023 06:02 23,8 C 8,5 C 8,2 C 20,4 C 42 % 69 % 1017,9 hPa 0,0 l/m 6,3 km/h (2 Bft) O 90 3,1 C 8,5 C 9,4 km/h (2 Bft)
03.06.2023 06:00 23,8 C 8,5 C 7,9 C 20,4 C 42 % 69 % 1017,9 hPa 0,0 l/m 5,6 km/h (1 Bft) O 90 3,1 C 8,5 C 15,9 km/h (3 Bft)
03.06.2023 05:58 23,8 C 8,4 C 7,8 C 20,3 C 42 % 69 % 1017,9 hPa 0,0 l/m 5,3 km/h (1 Bft) O-NO 67 3,0 C 8,4 C 13,0 km/h (3 Bft)
03.06.2023 05:56 23,8 C 8,4 C 7,4 C 20,3 C 42 % 69 % 1017,9 hPa 0,0 l/m 5,1 km/h (1 Bft) O-SO 112 3,0 C 8,4 C 7,7 km/h (2 Bft)
03.06.2023 05:54 23,8 C 8,3 C 7,3 C 20,3 C 42 % 69 % 1017,9 hPa 0,0 l/m 5,0 km/h (1 Bft) O 90 3,0 C 8,3 C 8,7 km/h (2 Bft)
03.06.2023 05:52 23,8 C 8,3 C 7,3 C 20,3 C 42 % 69 % 1017,9 hPa 0,0 l/m 5,6 km/h (1 Bft) O 90 3,0 C 8,3 C 8,4 km/h (2 Bft)
03.06.2023 05:50 23,8 C 8,3 C 7,2 C 20,3 C 42 % 69 % 1017,9 hPa 0,0 l/m 5,6 km/h (1 Bft) O 90 3,0 C 8,3 C 8,2 km/h (2 Bft)
03.06.2023 05:48 23,8 C 8,3 C 7,1 C 20,3 C 42 % 69 % 1017,9 hPa 0,0 l/m 5,8 km/h (2 Bft) O-NO 67 3,0 C 8,3 C 9,4 km/h (2 Bft)
03.06.2023 05:46 23,8 C 8,3 C 7,1 C 20,3 C 42 % 69 % 1017,9 hPa 0,0 l/m 5,5 km/h (1 Bft) O-NO 67 3,0 C 8,3 C 8,2 km/h (2 Bft)
03.06.2023 05:44 23,8 C 8,3 C 7,1 C 20,3 C 42 % 69 % 1017,9 hPa 0,0 l/m 5,6 km/h (1 Bft) O-NO 67 3,0 C 8,3 C 9,2 km/h (2 Bft)
03.06.2023 05:42 23,8 C 8,2 C 6,8 C 20,3 C 42 % 69 % 1017,9 hPa 0,0 l/m 5,6 km/h (1 Bft) O 90 2,9 C 8,2 C 17,4 km/h (3 Bft)
03.06.2023 05:40 23,8 C 8,2 C 6,5 C 20,3 C 42 % 69 % 1017,9 hPa 0,0 l/m 5,5 km/h (1 Bft) NO 45 2,9 C 8,2 C 8,9 km/h (2 Bft)
03.06.2023 05:38 23,8 C 8,2 C 6,3 C 20,3 C 42 % 69 % 1017,9 hPa 0,0 l/m 5,6 km/h (1 Bft) O-NO 67 2,9 C 8,2 C 13,3 km/h (3 Bft)
03.06.2023 05:36 23,8 C 8,2 C 6,3 C 20,3 C 42 % 69 % 1017,9 hPa 0,0 l/m 5,8 km/h (2 Bft) O-NO 67 2,9 C 8,2 C 7,2 km/h (2 Bft)
03.06.2023 05:34 23,8 C 8,2 C 6,2 C 20,3 C 42 % 68 % 1017,9 hPa 0,0 l/m 6,4 km/h (2 Bft) SO 135 2,7 C 8,2 C 4,3 km/h (1 Bft)
03.06.2023 05:32 23,8 C 8,2 C 6,1 C 20,3 C 42 % 68 % 1017,9 hPa 0,0 l/m 7,1 km/h (2 Bft) O-NO 67 2,7 C 7,7 C 11,1 km/h (2 Bft)
03.06.2023 05:30 23,8 C 8,3 C 6,1 C 20,3 C 42 % 68 % 1018,1 hPa 0,0 l/m 8,2 km/h (2 Bft) O-SO 112 2,7 C 6,9 C 14,7 km/h (3 Bft)
03.06.2023 05:28 23,8 C 8,3 C 6,0 C 20,3 C 42 % 68 % 1018,1 hPa 0,0 l/m 8,7 km/h (2 Bft) O-NO 67 2,7 C 6,6 C 8,9 km/h (2 Bft)
03.06.2023 05:26 23,8 C 8,4 C 6,2 C 20,3 C 42 % 68 % 1018,1 hPa 0,0 l/m 9,3 km/h (2 Bft) NO 45 2,8 C 6,3 C 14,2 km/h (3 Bft)
03.06.2023 05:24 23,9 C 8,4 C 6,4 C 20,3 C 42 % 68 % 1018,1 hPa 0,0 l/m 9,0 km/h (2 Bft) O-NO 67 2,8 C 6,5 C 14,5 km/h (3 Bft)
03.06.2023 05:22 23,9 C 8,4 C 6,3 C 20,4 C 42 % 68 % 1018,1 hPa 0,0 l/m 8,7 km/h (2 Bft) NO 45 2,8 C 6,7 C 17,6 km/h (3 Bft)
03.06.2023 05:20 23,9 C 8,4 C 6,3 C 20,4 C 42 % 68 % 1018,1 hPa 0,0 l/m 7,9 km/h (2 Bft) O-NO 67 2,8 C 7,2 C 20,8 km/h (4 Bft)
03.06.2023 05:18 23,9 C 8,4 C 6,2 C 20,4 C 42 % 67 % 1018,1 hPa 0,0 l/m 7,4 km/h (2 Bft) O-NO 67 2,6 C 7,6 C 22,7 km/h (4 Bft)
03.06.2023 05:16 23,9 C 8,5 C 6,2 C 20,4 C 42 % 67 % 1018,1 hPa 0,0 l/m 7,1 km/h (2 Bft) NO 45 2,7 C 8,0 C 15,9 km/h (3 Bft)
03.06.2023 05:14 23,9 C 8,6 C 6,2 C 20,4 C 42 % 67 % 1018,1 hPa 0,0 l/m 6,6 km/h (2 Bft) O-NO 67 2,8 C 8,5 C 11,1 km/h (2 Bft)
03.06.2023 05:12 23,9 C 8,6 C 6,4 C 20,4 C 42 % 67 % 1018,1 hPa 0,0 l/m 7,1 km/h (2 Bft) O-NO 67 2,8 C 8,1 C 9,9 km/h (2 Bft)
03.06.2023 05:10 23,9 C 8,6 C 6,4 C 20,4 C 42 % 67 % 1017,8 hPa 0,0 l/m 7,2 km/h (2 Bft) O-SO 112 2,8 C 8,0 C 14,0 km/h (3 Bft)
03.06.2023 05:08 23,9 C 8,8 C 6,5 C 20,4 C 42 % 67 % 1017,8 hPa 0,0 l/m 6,9 km/h (2 Bft) O-NO 67 3,0 C 8,4 C 12,3 km/h (3 Bft)
03.06.2023 05:06 24,0 C 8,8 C 6,9 C 20,4 C 42 % 67 % 1017,8 hPa 0,0 l/m 6,9 km/h (2 Bft) O-NO 67 3,0 C 8,4 C 13,8 km/h (3 Bft)
03.06.2023 05:04 24,0 C 8,8 C 7,1 C 20,4 C 42 % 67 % 1017,8 hPa 0,0 l/m 7,2 km/h (2 Bft) O 90 3,0 C 8,2 C 9,7 km/h (2 Bft)
03.06.2023 05:02 24,0 C 8,8 C 7,1 C 20,4 C 42 % 67 % 1017,8 hPa 0,0 l/m 7,6 km/h (2 Bft) O 90 3,0 C 7,9 C 20,3 km/h (4 Bft)
03.06.2023 05:00 24,0 C 9,0 C 7,4 C 20,4 C 42 % 67 % 1017,8 hPa 0,0 l/m 7,7 km/h (2 Bft) O-SO 112 3,2 C 8,0 C 11,8 km/h (2 Bft)
03.06.2023 04:58 24,0 C 9,0 C 7,6 C 20,4 C 42 % 67 % 1017,8 hPa 0,0 l/m 7,9 km/h (2 Bft) SO 135 3,2 C 7,9 C 6,8 km/h (2 Bft)
03.06.2023 04:56 24,0 C 9,1 C 7,7 C 20,5 C 42 % 67 % 1017,8 hPa 0,0 l/m 8,0 km/h (2 Bft) O 90 3,3 C 7,9 C 12,8 km/h (3 Bft)
03.06.2023 04:54 24,0 C 9,1 C 7,9 C 20,5 C 42 % 67 % 1017,8 hPa 0,0 l/m 8,0 km/h (2 Bft) O 90 3,3 C 7,9 C 8,2 km/h (2 Bft)
03.06.2023 04:52 24,0 C 9,2 C 7,9 C 20,5 C 42 % 68 % 1017,8 hPa 0,0 l/m 7,9 km/h (2 Bft) O-NO 67 3,6 C 8,1 C 13,3 km/h (3 Bft)
03.06.2023 04:50 24,0 C 9,2 C 8,0 C 20,5 C 42 % 68 % 1017,7 hPa 0,0 l/m 7,6 km/h (2 Bft) SO 135 3,6 C 8,3 C 15,7 km/h (3 Bft)
03.06.2023 04:48 24,0 C 9,2 C 8,0 C 20,4 C 42 % 68 % 1017,7 hPa 0,0 l/m 7,2 km/h (2 Bft) S-SO 157 3,6 C 8,6 C 18,3 km/h (3 Bft)
03.06.2023 04:46 24,0 C 9,2 C 8,0 C 20,4 C 42 % 68 % 1017,7 hPa 0,0 l/m 6,6 km/h (2 Bft) O 90 3,6 C 9,1 C 8,9 km/h (2 Bft)
03.06.2023 04:44 24,0 C 9,2 C 8,1 C 20,4 C 42 % 68 % 1017,7 hPa 0,0 l/m 6,1 km/h (2 Bft) O-SO 112 3,6 C 9,2 C 14,5 km/h (3 Bft)
03.06.2023 04:42 24,0 C 9,2 C 8,1 C 20,4 C 42 % 68 % 1017,7 hPa 0,0 l/m 5,5 km/h (1 Bft) O 90 3,6 C 9,2 C 12,8 km/h (3 Bft)
03.06.2023 04:40 24,0 C 9,3 C 8,2 C 20,4 C 42 % 68 % 1017,7 hPa 0,0 l/m 5,3 km/h (1 Bft) SO 135 3,7 C 9,3 C 10,9 km/h (2 Bft)
03.06.2023 04:38 24,0 C 9,3 C 8,2 C 20,5 C 42 % 68 % 1017,7 hPa 0,0 l/m 5,8 km/h (2 Bft) O-NO 67 3,7 C 9,3 C 12,6 km/h (3 Bft)
03.06.2023 04:36 24,0 C 9,3 C 8,3 C 20,5 C 42 % 68 % 1017,7 hPa 0,0 l/m 6,0 km/h (2 Bft) O-SO 112 3,7 C 9,3 C 6,0 km/h (2 Bft)
03.06.2023 04:34 24,0 C 9,4 C 8,4 C 20,5 C 42 % 68 % 1017,7 hPa 0,0 l/m 7,4 km/h (2 Bft) SO 135 3,8 C 8,7 C 4,3 km/h (1 Bft)
03.06.2023 04:32 24,0 C 9,5 C 8,6 C 20,5 C 42 % 69 % 1017,7 hPa 0,0 l/m 7,6 km/h (2 Bft) O-NO 67 4,1 C 8,6 C 7,0 km/h (2 Bft)
03.06.2023 04:30 24,0 C 9,5 C 8,6 C 20,5 C 42 % 69 % 1017,8 hPa 0,0 l/m 8,4 km/h (2 Bft) O-NO 67 4,1 C 8,1 C 13,3 km/h (3 Bft)
03.06.2023 04:28 24,0 C 9,5 C 8,8 C 20,5 C 42 % 69 % 1017,8 hPa 0,0 l/m 8,4 km/h (2 Bft) O 90 4,1 C 8,1 C 18,8 km/h (3 Bft)
03.06.2023 04:26 24,0 C 9,5 C 8,8 C 20,5 C 42 % 69 % 1017,8 hPa 0,0 l/m 8,2 km/h (2 Bft) SO 135 4,1 C 8,2 C 9,2 km/h (2 Bft)
03.06.2023 04:24 24,0 C 9,5 C 8,8 C 20,5 C 42 % 70 % 1017,8 hPa 0,0 l/m 8,0 km/h (2 Bft) O 90 4,3 C 8,3 C 27,5 km/h (4 Bft)
03.06.2023 04:22 24,0 C 9,6 C 8,9 C 20,5 C 42 % 70 % 1017,8 hPa 0,0 l/m 7,4 km/h (2 Bft) O 90 4,4 C 8,9 C 8,2 km/h (2 Bft)
03.06.2023 04:20 24,0 C 9,6 C 8,9 C 20,5 C 42 % 70 % 1017,8 hPa 0,0 l/m 7,7 km/h (2 Bft) SO 135 4,4 C 8,6 C 18,3 km/h (3 Bft)
03.06.2023 04:18 24,0 C 9,6 C 9,0 C 20,5 C 42 % 70 % 1017,8 hPa 0,0 l/m 8,0 km/h (2 Bft) O 90 4,4 C 8,4 C 19,3 km/h (3 Bft)
03.06.2023 04:16 24,0 C 9,7 C 9,0 C 20,5 C 42 % 70 % 1017,8 hPa 0,0 l/m 8,0 km/h (2 Bft) O 90 4,5 C 8,5 C 8,2 km/h (2 Bft)
03.06.2023 04:14 24,0 C 9,7 C 9,1 C 20,5 C 42 % 70 % 1017,8 hPa 0,0 l/m 7,9 km/h (2 Bft) NO 45 4,5 C 8,6 C 12,8 km/h (3 Bft)
03.06.2023 04:12 24,0 C 9,7 C 9,2 C 20,6 C 42 % 70 % 1017,8 hPa 0,0 l/m 7,7 km/h (2 Bft) O 90 4,5 C 8,7 C 17,1 km/h (3 Bft)
03.06.2023 04:10 24,0 C 9,7 C 9,2 C 20,6 C 42 % 70 % 1017,7 hPa 0,0 l/m 7,6 km/h (2 Bft) O 90 4,5 C 8,8 C 11,8 km/h (2 Bft)
03.06.2023 04:08 24,0 C 9,7 C 9,2 C 20,6 C 42 % 70 % 1017,7 hPa 0,0 l/m 7,4 km/h (2 Bft) O-NO 67 4,5 C 9,0 C 18,1 km/h (3 Bft)
03.06.2023 04:06 24,0 C 9,8 C 9,2 C 20,6 C 42 % 69 % 1017,7 hPa 0,0 l/m 6,9 km/h (2 Bft) SO 135 4,4 C 9,4 C 18,8 km/h (3 Bft)
03.06.2023 04:04 24,0 C 9,8 C 9,2 C 20,6 C 42 % 69 % 1017,7 hPa 0,0 l/m 6,9 km/h (2 Bft) O-NO 67 4,4 C 9,4 C 8,0 km/h (2 Bft)
03.06.2023 04:02 24,0 C 9,8 C 9,2 C 20,6 C 42 % 69 % 1017,7 hPa 0,0 l/m 7,1 km/h (2 Bft) SO 135 4,4 C 9,3 C 14,7 km/h (3 Bft)
03.06.2023 04:00 24,0 C 9,8 C 9,3 C 20,6 C 42 % 69 % 1017,7 hPa 0,0 l/m 7,2 km/h (2 Bft) O-NO 67 4,4 C 9,2 C 13,5 km/h (3 Bft)
03.06.2023 03:58 24,0 C 9,8 C 9,3 C 20,6 C 42 % 69 % 1017,7 hPa 0,0 l/m 7,6 km/h (2 Bft) SO 135 4,4 C 8,9 C 12,6 km/h (3 Bft)
03.06.2023 03:56 24,0 C 9,8 C 9,3 C 20,6 C 42 % 69 % 1017,7 hPa 0,0 l/m 7,7 km/h (2 Bft) O-SO 112 4,4 C 8,9 C 8,2 km/h (2 Bft)
03.06.2023 03:54 24,0 C 9,9 C 9,3 C 20,6 C 42 % 69 % 1017,7 hPa 0,0 l/m 7,9 km/h (2 Bft) O-NO 67 4,5 C 8,8 C 9,4 km/h (2 Bft)
03.06.2023 03:52 24,0 C 9,9 C 9,4 C 20,6 C 42 % 69 % 1017,7 hPa 0,0 l/m 8,2 km/h (2 Bft) O 90 4,5 C 8,6 C 13,8 km/h (3 Bft)
03.06.2023 03:50 24,0 C 9,9 C 9,4 C 20,6 C 42 % 69 % 1017,7 hPa 0,0 l/m 8,2 km/h (2 Bft) SO 135 4,5 C 8,6 C 13,0 km/h (3 Bft)
03.06.2023 03:48 24,0 C 9,9 C 9,4 C 20,6 C 42 % 68 % 1017,7 hPa 0,0 l/m 8,0 km/h (2 Bft) O-NO 67 4,3 C 8,7 C 14,5 km/h (3 Bft)
03.06.2023 03:46 24,0 C 9,9 C 9,4 C 20,6 C 42 % 68 % 1017,7 hPa 0,0 l/m 7,6 km/h (2 Bft) O-NO 67 4,3 C 9,0 C 11,1 km/h (2 Bft)
03.06.2023 03:44 24,0 C 9,9 C 9,3 C 20,5 C 42 % 68 % 1017,7 hPa 0,0 l/m 7,7 km/h (2 Bft) O 90 4,3 C 9,0 C 8,2 km/h (2 Bft)
03.06.2023 03:42 24,1 C 9,9 C 9,3 C 20,5 C 42 % 68 % 1017,7 hPa 0,0 l/m 8,5 km/h (2 Bft) S-SO 157 4,3 C 8,4 C 17,1 km/h (3 Bft)
03.06.2023 03:40 24,1 C 10,0 C 9,3 C 20,5 C 42 % 68 % 1017,7 hPa 0,0 l/m 9,0 km/h (2 Bft) O 90 4,4 C 8,2 C 17,1 km/h (3 Bft)
03.06.2023 03:38 24,1 C 10,0 C 9,4 C 20,6 C 42 % 68 % 1017,7 hPa 0,0 l/m 9,8 km/h (2 Bft) O 90 4,4 C 7,7 C 8,2 km/h (2 Bft)
03.06.2023 03:36 24,1 C 10,0 C 9,4 C 20,6 C 42 % 68 % 1017,7 hPa 0,0 l/m 10,9 km/h (2 Bft) O-NO 67 4,4 C 7,1 C 17,9 km/h (3 Bft)
03.06.2023 03:34 24,1 C 10,0 C 9,5 C 20,6 C 42 % 68 % 1017,7 hPa 0,0 l/m 11,6 km/h (2 Bft) NO 45 4,4 C 6,7 C 18,6 km/h (3 Bft)
03.06.2023 03:32 24,1 C 10,1 C 9,5 C 20,6 C 42 % 68 % 1017,7 hPa 0,0 l/m 12,2 km/h (2 Bft) O 90 4,5 C 6,5 C 20,5 km/h (4 Bft)
03.06.2023 03:30 24,1 C 10,1 C 9,5 C 20,6 C 42 % 68 % 1017,6 hPa 0,0 l/m 11,9 km/h (2 Bft) O-NO 67 4,5 C 6,7 C 27,3 km/h (4 Bft)
03.06.2023 03:28 24,2 C 10,1 C 9,6 C 20,6 C 42 % 68 % 1017,6 hPa 0,0 l/m 11,3 km/h (2 Bft) O-SO 112 4,5 C 7,0 C 24,9 km/h (4 Bft)
03.06.2023 03:26 24,2 C 10,1 C 9,6 C 20,6 C 42 % 69 % 1017,6 hPa 0,0 l/m 11,1 km/h (2 Bft) NO 45 4,7 C 7,1 C 22,0 km/h (4 Bft)
03.06.2023 03:24 24,2 C 10,2 C 9,6 C 20,7 C 42 % 69 % 1017,6 hPa 0,0 l/m 10,8 km/h (2 Bft) O-NO 67 4,8 C 7,4 C 29,0 km/h (5 Bft)
03.06.2023 03:22 24,2 C 10,2 C 9,5 C 20,7 C 42 % 69 % 1017,6 hPa 0,0 l/m 9,7 km/h (2 Bft) O-NO 67 4,8 C 8,0 C 19,8 km/h (3 Bft)
03.06.2023 03:20 24,2 C 10,2 C 9,5 C 20,7 C 42 % 69 % 1017,6 hPa 0,0 l/m 9,3 km/h (2 Bft) S-SO 157 4,8 C 8,2 C 15,7 km/h (3 Bft)
03.06.2023 03:18 24,2 C 10,2 C 9,5 C 20,7 C 42 % 69 % 1017,6 hPa 0,0 l/m 10,6 km/h (2 Bft) O 90 4,8 C 7,5 C 19,6 km/h (3 Bft)
03.06.2023 03:16 24,2 C 10,3 C 9,5 C 20,7 C 42 % 69 % 1017,6 hPa 0,0 l/m 10,3 km/h (2 Bft) SO 135 4,9 C 7,8 C 19,3 km/h (3 Bft)
03.06.2023 03:14 24,2 C 10,3 C 9,6 C 20,7 C 42 % 69 % 1017,6 hPa 0,0 l/m 10,3 km/h (2 Bft) O-NO 67 4,9 C 7,8 C 33,1 km/h (5 Bft)
03.06.2023 03:12 24,2 C 10,3 C 9,6 C 20,7 C 42 % 69 % 1017,6 hPa 0,0 l/m 10,6 km/h (2 Bft) O 90 4,9 C 7,6 C 8,7 km/h (2 Bft)
03.06.2023 03:10 24,2 C 10,4 C 9,8 C 20,7 C 42 % 69 % 1017,6 hPa 0,0 l/m 10,9 km/h (2 Bft) O 90 5,0 C 7,5 C 13,0 km/h (3 Bft)
03.06.2023 03:08 24,2 C 10,4 C 9,7 C 20,7 C 42 % 69 % 1017,6 hPa 0,0 l/m 10,6 km/h (2 Bft) O-NO 67 5,0 C 7,7 C 30,4 km/h (5 Bft)
03.06.2023 03:06 24,2 C 10,4 C 9,8 C 20,7 C 42 % 69 % 1017,6 hPa 0,0 l/m 10,5 km/h (2 Bft) O 90 5,0 C 7,8 C 18,6 km/h (3 Bft)
03.06.2023 03:04 24,2 C 10,4 C 9,9 C 20,7 C 42 % 69 % 1017,6 hPa 0,0 l/m 11,1 km/h (2 Bft) SW 225 5,0 C 7,4 C 21,2 km/h (4 Bft)
03.06.2023 03:02 24,2 C 10,5 C 9,9 C 20,7 C 42 % 69 % 1017,6 hPa 0,0 l/m 10,3 km/h (2 Bft) O 90 5,1 C 8,0 C 16,9 km/h (3 Bft)
03.06.2023 03:00 24,2 C 10,5 C 9,9 C 20,7 C 42 % 69 % 1017,6 hPa 0,0 l/m 9,2 km/h (2 Bft) SO 135 5,1 C 8,6 C 15,0 km/h (3 Bft)
03.06.2023 02:58 24,2 C 10,5 C 9,9 C 20,7 C 42 % 69 % 1017,6 hPa 0,0 l/m 9,0 km/h (2 Bft) O-SO 112 5,1 C 8,7 C 24,4 km/h (4 Bft)
03.06.2023 02:56 24,2 C 10,5 C 9,9 C 20,7 C 42 % 69 % 1017,6 hPa 0,0 l/m 7,9 km/h (2 Bft) O 90 5,1 C 9,4 C 12,1 km/h (2 Bft)
03.06.2023 02:54 24,2 C 10,5 C 9,8 C 20,7 C 42 % 68 % 1017,6 hPa 0,0 l/m 7,6 km/h (2 Bft) O-SO 112 4,8 C 9,6 C 16,4 km/h (3 Bft)
03.06.2023 02:52 24,2 C 10,6 C 9,8 C 20,7 C 42 % 68 % 1017,6 hPa 0,0 l/m 7,4 km/h (2 Bft) SO 135 4,9 C 9,9 C 12,8 km/h (3 Bft)
03.06.2023 02:50 24,2 C 10,6 C 9,8 C 20,7 C 42 % 68 % 1017,4 hPa 0,0 l/m 8,4 km/h (2 Bft) O-NO 67 4,9 C 9,2 C 10,1 km/h (2 Bft)
03.06.2023 02:48 24,2 C 10,6 C 9,8 C 20,7 C 42 % 68 % 1017,4 hPa 0,0 l/m 9,5 km/h (2 Bft) S-SW 202 4,9 C 8,5 C 14,5 km/h (3 Bft)
03.06.2023 02:46 24,2 C 10,6 C 9,6 C 20,7 C 42 % 68 % 1017,4 hPa 0,0 l/m 9,7 km/h (2 Bft) O 90 4,9 C 8,4 C 20,5 km/h (4 Bft)
03.06.2023 02:44 24,2 C 10,6 C 9,6 C 20,7 C 42 % 68 % 1017,4 hPa 0,0 l/m 10,9 km/h (2 Bft) O-SO 112 4,9 C 7,8 C 18,1 km/h (3 Bft)
03.06.2023 02:42 24,2 C 10,6 C 9,5 C 20,7 C 42 % 68 % 1017,4 hPa 0,0 l/m 10,5 km/h (2 Bft) O-NO 67 4,9 C 8,0 C 13,8 km/h (3 Bft)
03.06.2023 02:40 24,2 C 10,6 C 9,4 C 20,7 C 42 % 68 % 1017,4 hPa 0,0 l/m 10,9 km/h (2 Bft) SO 135 4,9 C 7,8 C 17,9 km/h (3 Bft)
03.06.2023 02:38 24,2 C 10,6 C 9,3 C 20,7 C 42 % 68 % 1017,4 hPa 0,0 l/m 10,5 km/h (2 Bft) O-NO 67 4,9 C 8,0 C 16,4 km/h (3 Bft)
03.06.2023 02:36 24,2 C 10,7 C 9,6 C 20,7 C 42 % 68 % 1017,4 hPa 0,0 l/m 10,8 km/h (2 Bft) SO 135 5,0 C 7,9 C 21,5 km/h (4 Bft)
03.06.2023 02:34 24,2 C 10,7 C 9,6 C 20,7 C 42 % 68 % 1017,4 hPa 0,0 l/m 10,5 km/h (2 Bft) SO 135 5,0 C 8,1 C 30,9 km/h (5 Bft)
03.06.2023 02:32 24,3 C 10,7 C 9,7 C 20,7 C 42 % 68 % 1017,4 hPa 0,0 l/m 10,9 km/h (2 Bft) SO 135 5,0 C 7,9 C 14,7 km/h (3 Bft)
03.06.2023 02:30 24,3 C 10,8 C 9,9 C 20,7 C 42 % 68 % 1017,8 hPa 0,0 l/m 10,9 km/h (2 Bft) SO 135 5,1 C 8,0 C 25,8 km/h (4 Bft)
03.06.2023 02:28 24,3 C 10,8 C 9,8 C 20,7 C 42 % 68 % 1017,8 hPa 0,0 l/m 10,6 km/h (2 Bft) O-NO 67 5,1 C 8,2 C 15,2 km/h (3 Bft)
03.06.2023 02:26 24,3 C 10,8 C 9,8 C 20,7 C 42 % 67 % 1017,8 hPa 0,0 l/m 10,6 km/h (2 Bft) SO 135 4,9 C 8,2 C 11,8 km/h (2 Bft)
03.06.2023 02:24 24,3 C 10,8 C 9,8 C 20,7 C 42 % 67 % 1017,8 hPa 0,0 l/m 11,1 km/h (2 Bft) O-SO 112 4,9 C 7,9 C 17,1 km/h (3 Bft)
03.06.2023 02:22 24,3 C 10,9 C 9,9 C 20,7 C 42 % 67 % 1017,8 hPa 0,0 l/m 10,8 km/h (2 Bft) O-SO 112 5,0 C 8,2 C 19,3 km/h (3 Bft)
03.06.2023 02:20 24,3 C 10,9 C 9,8 C 20,7 C 43 % 67 % 1017,8 hPa 0,0 l/m 10,8 km/h (2 Bft) O 90 5,0 C 8,2 C 19,1 km/h (3 Bft)
03.06.2023 02:18 24,3 C 11,0 C 9,9 C 20,7 C 43 % 67 % 1017,8 hPa 0,0 l/m 10,8 km/h (2 Bft) SO 135 5,1 C 8,3 C 13,3 km/h (3 Bft)
03.06.2023 02:16 24,3 C 11,0 C 10,2 C 20,7 C 42 % 67 % 1017,8 hPa 0,0 l/m 10,5 km/h (2 Bft) SO 135 5,1 C 8,4 C 20,5 km/h (4 Bft)
03.06.2023 02:14 24,3 C 11,0 C 10,3 C 20,7 C 43 % 67 % 1017,8 hPa 0,0 l/m 9,8 km/h (2 Bft) O-SO 112 5,1 C 8,8 C 16,7 km/h (3 Bft)
03.06.2023 02:12 24,3 C 11,0 C 10,3 C 20,7 C 43 % 66 % 1017,8 hPa 0,0 l/m 9,8 km/h (2 Bft) S 180 4,9 C 8,8 C 13,5 km/h (3 Bft)
03.06.2023 02:10 24,3 C 11,0 C 10,3 C 20,7 C 43 % 66 % 1017,6 hPa 0,0 l/m 10,0 km/h (2 Bft) O 90 4,9 C 8,7 C 21,7 km/h (4 Bft)
03.06.2023 02:08 24,3 C 11,0 C 10,3 C 20,7 C 43 % 66 % 1017,6 hPa 0,0 l/m 9,7 km/h (2 Bft) O 90 4,9 C 8,9 C 19,8 km/h (3 Bft)
03.06.2023 02:06 24,3 C 11,2 C 10,3 C 20,7 C 43 % 66 % 1017,6 hPa 0,0 l/m 9,3 km/h (2 Bft) S-SO 157 5,1 C 9,3 C 12,3 km/h (3 Bft)
03.06.2023 02:04 24,3 C 11,2 C 10,4 C 20,7 C 43 % 66 % 1017,6 hPa 0,0 l/m 9,0 km/h (2 Bft) SO 135 5,1 C 9,5 C 15,2 km/h (3 Bft)
03.06.2023 02:02 24,2 C 11,2 C 10,4 C 20,7 C 43 % 65 % 1017,6 hPa 0,0 l/m 8,9 km/h (2 Bft) SO 135 4,9 C 9,6 C 13,3 km/h (3 Bft)
03.06.2023 02:00 24,3 C 11,2 C 10,3 C 20,7 C 43 % 65 % 1017,6 hPa 0,0 l/m 9,0 km/h (2 Bft) SO 135 4,9 C 9,5 C 17,9 km/h (3 Bft)
03.06.2023 01:58 24,3 C 11,3 C 10,2 C 20,7 C 43 % 65 % 1017,6 hPa 0,0 l/m 8,9 km/h (2 Bft) O-SO 112 5,0 C 9,7 C 17,9 km/h (3 Bft)
03.06.2023 01:56 24,3 C 11,3 C 10,2 C 20,7 C 43 % 65 % 1017,6 hPa 0,0 l/m 9,7 km/h (2 Bft) SO 135 5,0 C 9,2 C 11,8 km/h (2 Bft)
03.06.2023 01:54 24,2 C 11,3 C 10,4 C 20,7 C 43 % 65 % 1017,6 hPa 0,0 l/m 10,9 km/h (2 Bft) SO 135 5,0 C 8,6 C 14,2 km/h (3 Bft)
03.06.2023 01:52 24,2 C 11,4 C 10,5 C 20,7 C 43 % 65 % 1017,6 hPa 0,0 l/m 11,6 km/h (2 Bft) O 90 5,1 C 8,3 C 11,6 km/h (2 Bft)
03.06.2023 01:50 24,2 C 11,4 C 10,6 C 20,7 C 43 % 65 % 1017,7 hPa 0,0 l/m 11,9 km/h (2 Bft) O-NO 67 5,1 C 8,2 C 25,1 km/h (4 Bft)
03.06.2023 01:48 24,2 C 11,5 C 10,8 C 20,7 C 43 % 65 % 1017,7 hPa 0,0 l/m 11,9 km/h (2 Bft) S-SO 157 5,2 C 8,3 C 17,1 km/h (3 Bft)
03.06.2023 01:46 24,4 C 11,5 C 10,9 C 20,7 C 43 % 64 % 1017,7 hPa 0,0 l/m 11,4 km/h (2 Bft) NO 45 4,9 C 8,5 C 21,7 km/h (4 Bft)
03.06.2023 01:44 24,2 C 11,5 C 11,0 C 20,7 C 43 % 64 % 1017,7 hPa 0,0 l/m 10,5 km/h (2 Bft) SO 135 4,9 C 9,0 C 29,0 km/h (5 Bft)
03.06.2023 01:42 24,2 C 11,5 C 11,0 C 20,7 C 43 % 64 % 1017,7 hPa 0,0 l/m 9,7 km/h (2 Bft) O 90 4,9 C 9,4 C 19,1 km/h (3 Bft)
03.06.2023 01:40 24,2 C 11,6 C 11,0 C 20,7 C 43 % 64 % 1017,7 hPa 0,0 l/m 8,9 km/h (2 Bft) O 90 5,0 C 10,0 C 18,6 km/h (3 Bft)
03.06.2023 01:38 24,4 C 11,6 C 11,0 C 20,7 C 43 % 64 % 1017,7 hPa 0,0 l/m 8,4 km/h (2 Bft) O 90 5,0 C 10,3 C 24,6 km/h (4 Bft)
03.06.2023 01:36 24,2 C 11,6 C 11,0 C 20,7 C 43 % 64 % 1017,7 hPa 0,0 l/m 8,2 km/h (2 Bft) SO 135 5,0 C 10,4 C 18,8 km/h (3 Bft)
03.06.2023 01:34 24,4 C 11,7 C 11,0 C 20,7 C 43 % 63 % 1017,7 hPa 0,0 l/m 8,4 km/h (2 Bft) S-SO 157 4,9 C 10,4 C 13,3 km/h (3 Bft)
03.06.2023 01:32 24,4 C 11,7 C 11,0 C 20,7 C 43 % 63 % 1017,7 hPa 0,0 l/m 8,7 km/h (2 Bft) O-SO 112 4,9 C 10,2 C 11,1 km/h (2 Bft)
03.06.2023 01:30 24,4 C 11,7 C 11,1 C 20,7 C 43 % 63 % 1017,6 hPa 0,0 l/m 8,4 km/h (2 Bft) SO 135 4,9 C 10,4 C 17,9 km/h (3 Bft)
03.06.2023 01:28 24,4 C 11,8 C 11,1 C 20,7 C 43 % 63 % 1017,6 hPa 0,0 l/m 8,9 km/h (2 Bft) O 90 5,0 C 10,2 C 17,1 km/h (3 Bft)
03.06.2023 01:26 24,4 C 11,8 C 11,1 C 20,7 C 43 % 63 % 1017,6 hPa 0,0 l/m 8,5 km/h (2 Bft) O-SO 112 5,0 C 10,4 C 15,0 km/h (3 Bft)
03.06.2023 01:24 24,4 C 11,8 C 11,1 C 20,7 C 43 % 63 % 1017,6 hPa 0,0 l/m 8,4 km/h (2 Bft) SO 135 5,0 C 10,5 C 22,0 km/h (4 Bft)
03.06.2023 01:22 24,4 C 11,8 C 11,1 C 20,7 C 43 % 63 % 1017,6 hPa 0,0 l/m 8,0 km/h (2 Bft) O-SO 112 5,0 C 10,7 C 20,5 km/h (4 Bft)
03.06.2023 01:20 24,4 C 11,9 C 11,1 C 20,7 C 43 % 63 % 1017,6 hPa 0,0 l/m 8,4 km/h (2 Bft) O-NO 67 5,1 C 10,6 C 13,5 km/h (3 Bft)
03.06.2023 01:18 24,4 C 11,9 C 11,2 C 20,7 C 43 % 63 % 1017,6 hPa 0,0 l/m 8,0 km/h (2 Bft) O-SO 112 5,1 C 10,8 C 11,6 km/h (2 Bft)
03.06.2023 01:16 24,4 C 11,9 C 11,2 C 20,7 C 43 % 63 % 1017,6 hPa 0,0 l/m 8,0 km/h (2 Bft) O-NO 67 5,1 C 10,8 C 12,6 km/h (3 Bft)
03.06.2023 01:14 24,4 C 11,9 C 11,2 C 20,7 C 43 % 63 % 1017,6 hPa 0,0 l/m 8,2 km/h (2 Bft) O 90 5,1 C 10,7 C 21,5 km/h (4 Bft)
03.06.2023 01:12 24,4 C 11,9 C 11,1 C 20,7 C 43 % 63 % 1017,6 hPa 0,0 l/m 7,7 km/h (2 Bft) SO 135 5,1 C 11,0 C 15,0 km/h (3 Bft)
03.06.2023 01:10 24,4 C 11,9 C 11,1 C 20,7 C 43 % 63 % 1017,6 hPa 0,0 l/m 6,9 km/h (2 Bft) SO 135 5,1 C 11,6 C 14,2 km/h (3 Bft)
03.06.2023 01:08 24,4 C 11,9 C 11,1 C 20,7 C 43 % 63 % 1017,6 hPa 0,0 l/m 6,6 km/h (2 Bft) O 90 5,1 C 11,8 C 12,1 km/h (2 Bft)
03.06.2023 01:06 24,4 C 11,9 C 11,1 C 20,7 C 43 % 63 % 1017,6 hPa 0,0 l/m 6,4 km/h (2 Bft) SO 135 5,1 C 11,9 C 15,7 km/h (3 Bft)
03.06.2023 01:04 24,4 C 12,0 C 11,0 C 20,7 C 43 % 63 % 1017,6 hPa 0,0 l/m 6,1 km/h (2 Bft) SO 135 5,2 C 12,0 C 19,1 km/h (3 Bft)
03.06.2023 01:02 24,4 C 12,0 C 11,0 C 20,7 C 43 % 63 % 1017,6 hPa 0,0 l/m 6,0 km/h (2 Bft) O-SO 112 5,2 C 12,0 C 7,7 km/h (2 Bft)
03.06.2023 01:00 24,4 C 12,0 C 11,0 C 20,7 C 43 % 63 % 1017,6 hPa 0,0 l/m 6,4 km/h (2 Bft) O 90 5,2 C 12,0 C 8,7 km/h (2 Bft)
03.06.2023 00:58 24,4 C 12,0 C 11,0 C 20,7 C 43 % 63 % 1017,6 hPa 0,0 l/m 7,1 km/h (2 Bft) SO 135 5,2 C 11,5 C 8,9 km/h (2 Bft)
03.06.2023 00:56 24,4 C 12,0 C 11,1 C 20,7 C 43 % 63 % 1017,6 hPa 0,0 l/m 7,2 km/h (2 Bft) SO 135 5,2 C 11,5 C 12,8 km/h (3 Bft)
03.06.2023 00:54 24,4 C 12,0 C 11,0 C 20,8 C 43 % 63 % 1017,6 hPa 0,0 l/m 6,9 km/h (2 Bft) NO 45 5,2 C 11,7 C 17,6 km/h (3 Bft)
03.06.2023 00:52 24,4 C 11,9 C 10,8 C 20,8 C 43 % 63 % 1017,6 hPa 0,0 l/m 6,4 km/h (2 Bft) O-NO 67 5,1 C 11,9 C 10,4 km/h (2 Bft)
03.06.2023 00:50 24,4 C 11,9 C 9,8 C 20,8 C 43 % 63 % 1017,6 hPa 0,0 l/m 6,3 km/h (2 Bft) NO 45 5,1 C 11,9 C 10,9 km/h (2 Bft)
03.06.2023 00:48 24,4 C 11,8 C 9,8 C 20,8 C 43 % 63 % 1017,6 hPa 0,0 l/m 5,6 km/h (1 Bft) O-NO 67 5,0 C 11,8 C 10,9 km/h (2 Bft)
03.06.2023 00:46 24,4 C 11,8 C 9,8 C 20,7 C 43 % 63 % 1017,6 hPa 0,0 l/m 6,0 km/h (2 Bft) SO 135 5,0 C 11,8 C 8,7 km/h (2 Bft)
03.06.2023 00:44 24,4 C 11,9 C 9,2 C 20,7 C 43 % 63 % 1017,6 hPa 0,0 l/m 5,8 km/h (2 Bft) O-SO 112 5,1 C 11,9 C 18,1 km/h (3 Bft)
03.06.2023 00:42 24,4 C 11,9 C 9,4 C 20,7 C 43 % 63 % 1017,6 hPa 0,0 l/m 5,8 km/h (2 Bft) SO 135 5,1 C 11,9 C 9,9 km/h (2 Bft)
03.06.2023 00:40 24,4 C 11,9 C 9,4 C 20,7 C 43 % 62 % 1017,6 hPa 0,0 l/m 5,5 km/h (1 Bft) SO 135 4,9 C 11,9 C 8,7 km/h (2 Bft)
03.06.2023 00:38 24,4 C 11,9 C 9,3 C 20,7 C 43 % 62 % 1017,6 hPa 0,0 l/m 5,0 km/h (1 Bft) O 90 4,9 C 11,9 C 7,7 km/h (2 Bft)
03.06.2023 00:36 24,4 C 11,9 C 9,2 C 20,7 C 43 % 62 % 1017,6 hPa 0,0 l/m 4,7 km/h (1 Bft) O-SO 112 4,9 C 11,9 C 18,1 km/h (3 Bft)
03.06.2023 00:34 24,4 C 11,9 C 9,0 C 20,7 C 43 % 62 % 1017,6 hPa 0,0 l/m 3,9 km/h (1 Bft) O-NO 67 4,9 C 11,9 C 14,0 km/h (3 Bft)
03.06.2023 00:32 24,4 C 11,8 C 8,8 C 20,7 C 43 % 62 % 1017,6 hPa 0,0 l/m 3,1 km/h (1 Bft) SO 135 4,8 C 11,8 C 8,9 km/h (2 Bft)
03.06.2023 00:30 24,4 C 11,8 C 8,8 C 20,7 C 43 % 61 % 1017,5 hPa 0,0 l/m 2,7 km/h (1 Bft) SO 135 4,5 C 11,8 C 4,6 km/h (1 Bft)
03.06.2023 00:28 24,4 C 11,7 C 9,1 C 20,7 C 43 % 61 % 1017,5 hPa 0,0 l/m 2,6 km/h (1 Bft) NO 45 4,4 C 11,7 C 6,5 km/h (2 Bft)
03.06.2023 00:26 24,4 C 11,7 C 9,1 C 20,7 C 43 % 61 % 1017,5 hPa 0,0 l/m 2,4 km/h (1 Bft) NO 45 4,4 C 11,7 C 10,1 km/h (2 Bft)
03.06.2023 00:24 24,4 C 11,6 C 9,0 C 20,7 C 43 % 61 % 1017,5 hPa 0,0 l/m 2,1 km/h (1 Bft) O 90 4,3 C 11,6 C 3,6 km/h (1 Bft)
03.06.2023 00:22 24,4 C 11,6 C 9,0 C 20,7 C 43 % 61 % 1017,5 hPa 0,0 l/m 2,4 km/h (1 Bft) O-NO 67 4,3 C 11,6 C 4,6 km/h (1 Bft)
03.06.2023 00:20 24,4 C 11,7 C 8,8 C 20,7 C 43 % 61 % 1017,5 hPa 0,0 l/m 2,6 km/h (1 Bft) N-NO 22 4,4 C 11,7 C 6,0 km/h (2 Bft)
03.06.2023 00:18 24,4 C 11,7 C 8,6 C 20,7 C 43 % 60 % 1017,5 hPa 0,0 l/m 2,4 km/h (1 Bft) NO 45 4,2 C 11,7 C 4,6 km/h (1 Bft)
03.06.2023 00:16 24,4 C 11,7 C 8,6 C 20,7 C 43 % 60 % 1017,5 hPa 0,0 l/m 2,6 km/h (1 Bft) NO 45 4,2 C 11,7 C 4,1 km/h (1 Bft)
03.06.2023 00:14 24,4 C 11,8 C 8,5 C 20,7 C 43 % 60 % 1017,5 hPa 0,0 l/m 2,6 km/h (1 Bft) NO 45 4,3 C 11,8 C 9,4 km/h (2 Bft)
03.06.2023 00:12 24,4 C 11,7 C 8,2 C 20,7 C 43 % 60 % 1017,5 hPa 0,0 l/m 2,4 km/h (1 Bft) N-NO 22 4,2 C 11,7 C 8,0 km/h (2 Bft)
03.06.2023 00:10 24,4 C 11,8 C 8,2 C 20,7 C 43 % 60 % 1017,3 hPa 0,0 l/m 1,8 km/h (1 Bft) NO 45 4,3 C 11,8 C 2,7 km/h (1 Bft)
03.06.2023 00:08 24,4 C 11,8 C 8,0 C 20,7 C 43 % 60 % 1017,3 hPa 0,0 l/m 1,9 km/h (1 Bft) NO 45 4,3 C 11,8 C 4,8 km/h (1 Bft)
03.06.2023 00:06 24,4 C 11,8 C 8,1 C 20,7 C 43 % 60 % 1017,3 hPa 0,0 l/m 1,4 km/h (1 Bft) N-NO 22 4,3 C 11,8 C 9,4 km/h (2 Bft)
03.06.2023 00:04 24,4 C 11,9 C 8,3 C 20,7 C 43 % 59 % 1017,3 hPa 0,0 l/m 1,6 km/h (1 Bft) NO 45 4,1 C 11,9 C 2,9 km/h (1 Bft)
03.06.2023 00:02 24,4 C 11,9 C 8,4 C 20,7 C 43 % 59 % 1017,3 hPa 0,0 l/m 1,9 km/h (1 Bft) N-NW 337 4,1 C 11,9 C 2,9 km/h (1 Bft)
03.06.2023 00:00 24,4 C 12,0 C 8,6 C 20,7 C 43 % 59 % 1017,3 hPa 0,0 l/m 2,6 km/h (1 Bft) NO 45 4,2 C 12,0 C 3,9 km/h (1 Bft)
_ Min-Zeit 05:26 05:32 05:28 08:50 09:56 13:22 16:32 - 00:06 - - 09:34 07:10 00:10
Minimum _ 23,8 C 8,2 C 6,0 C 19,9 C 36 % 36 % 1017,1 hPa - 1,4 km/h (1 Bft) - - -0,1 C 5,6 C 2,7 km/h (1 Bft)
_ Max-Zeit 00:00 15:50 15:20 00:48 00:00 04:08 09:12 00:00 08:50 - - 00:54 15:22 13:20
Maximum _ 24,4 C 17,2 C 30,3 C 20,8 C 43 % 70 % 1018,9 hPa 0,0 l/m 15,0 km/h
O-NO (3 Bft)
- - 5,2 C 16,9 C 36,5 km/h
W-NW (5 Bft)
Durchschnitt _ 24,1 C 12,3 C 17,5 C 20,4 C 41 % 54 % 1018,1 hPa #0,0 l/m 9,5 km/h (2 Bft) O-NO - 2,7 C 10,4 C 17,4 km/h (3 Bft)